Time,TemperatureF,DewpointF,PressureIn,WindDirection,WindDirectionDegrees,WindSpeedMPH,WindSpeedGustMPH,Humidity,HourlyPrecipIn,Conditions,Clouds,dailyrainin,SoftwareType,DateUTC
2013-04-16 00:00:00,58.1,43.4,28.91,SSE,158,2.3,2.3,58,0.00,CLR,,0.00,WeatherDisplay:10.37,2013-04-16 04:00:00,
2013-04-16 00:05:00,57.9,43.2,28.91,SSE,158,3.5,3.5,58,0.00,CLR,,0.00,WeatherDisplay:10.37,2013-04-16 04:05:00,
2013-04-16 00:10:00,58.1,42.9,28.91,SSW,202,1.1,0.0,57,0.00,CLR,,0.00,WeatherDisplay:10.37,2013-04-16 04:10:00,
2013-04-16 00:15:00,58.1,42.9,28.91,NNW,338,0.0,2.6,57,0.00,CLR,,0.00,WeatherDisplay:10.37,2013-04-16 04:15:00,
2013-04-16 00:20:00,58.1,42.5,28.91,SSE,158,4.6,4.6,56,0.00,CLR,,0.00,WeatherDisplay:10.37,2013-04-16 04:20:00,
2013-04-16 00:21:00,58.1,42.5,28.91,SSE,158,6.2,6.2,56,0.00,CLR,,0.00,WeatherDisplay:10.37,2013-04-16 04:21:00,
2013-04-16 00:25:00,58.5,42.3,28.91,SSE,158,9.2,9.2,55,0.00,CLR,,0.00,WeatherDisplay:10.37,2013-04-16 04:25:00,
2013-04-16 00:26:00,58.5,42.3,28.91,SSE,158,8.1,8.1,55,0.00,CLR,,0.00,WeatherDisplay:10.37,2013-04-16 04:26:00,
2013-04-16 00:27:00,58.5,41.9,28.91,SSE,158,8.1,8.1,54,0.00,CLR,,0.00,WeatherDisplay:10.37,2013-04-16 04:27:00,
2013-04-16 00:30:00,58.6,41.5,28.91,SSE,158,11.5,11.5,53,0.00,CLR,,0.00,WeatherDisplay:10.37,2013-04-16 04:30:00,
2013-04-16 00:31:00,58.6,41.5,28.91,SSE,158,11.5,11.5,53,0.00,CLR,,0.00,WeatherDisplay:10.37,2013-04-16 04:31:00,
2013-04-16 00:32:00,58.6,41.1,28.91,SSW,202,8.1,8.1,52,0.00,CLR,,0.00,WeatherDisplay:10.37,2013-04-16 04:32:00,
2013-04-16 00:36:00,58.6,41.1,28.91,SSE,158,6.9,6.9,52,0.00,CLR,,0.00,WeatherDisplay:10.37,2013-04-16 04:36:00,
2013-04-16 00:37:00,58.8,41.2,28.91,SSE,158,6.9,6.9,52,0.00,CLR,,0.00,WeatherDisplay:10.37,2013-04-16 04:37:00,
2013-04-16 00:42:00,58.8,40.7,28.91,SSE,158,6.9,6.9,51,0.00,CLR,,0.00,WeatherDisplay:10.37,2013-04-16 04:42:00,
2013-04-16 00:47:00,59.0,39.9,28.91,SSE,158,8.1,8.1,49,0.00,CLR,,0.00,WeatherDisplay:10.37,2013-04-16 04:47:00,
2013-04-16 00:48:00,59.0,39.9,28.91,SSW,202,6.9,6.9,49,0.00,CLR,,0.00,WeatherDisplay:10.37,2013-04-16 04:48:00,
2013-04-16 00:52:00,59.2,39.5,28.88,SSE,158,8.1,8.1,48,0.00,CLR,,0.00,WeatherDisplay:10.37,2013-04-16 04:52:00,
2013-04-16 00:53:00,59.4,39.1,28.88,SSE,158,13.8,13.8,47,0.00,CLR,,0.00,WeatherDisplay:10.37,2013-04-16 04:53:00,
2013-04-16 00:57:00,59.7,38.9,28.88,SSE,158,13.8,13.8,46,0.00,CLR,,0.00,WeatherDisplay:10.37,2013-04-16 04:57:00,
2013-04-16 00:58:00,59.7,38.9,28.88,SSE,158,12.7,12.7,46,0.00,CLR,,0.00,WeatherDisplay:10.37,2013-04-16 04:58:00,
2013-04-16 01:02:00,60.1,38.7,28.88,SSE,158,12.1,12.1,45,0.00,CLR,,0.00,WeatherDisplay:10.37,2013-04-16 05:02:00,
2013-04-16 01:03:00,60.1,38.1,28.88,SSW,202,17.3,17.3,44,0.00,CLR,,0.00,WeatherDisplay:10.37,2013-04-16 05:03:00,
2013-04-16 01:07:00,60.3,38.2,28.88,SSE,158,12.7,12.7,44,0.00,CLR,,0.00,WeatherDisplay:10.37,2013-04-16 05:07:00,
2013-04-16 01:08:00,60.3,38.2,28.88,SSE,158,12.7,12.7,44,0.00,CLR,,0.00,WeatherDisplay:10.37,2013-04-16 05:08:00,
2013-04-16 01:12:00,60.3,37.7,28.88,SSE,158,8.7,8.7,43,0.00,CLR,,0.00,WeatherDisplay:10.37,2013-04-16 05:12:00,
2013-04-16 01:13:00,60.3,37.7,28.88,SSE,158,11.5,11.5,43,0.00,CLR,,0.00,WeatherDisplay:10.37,2013-04-16 05:13:00,
2013-04-16 01:17:00,60.1,37.5,28.88,SSE,158,8.1,8.1,43,0.00,CLR,,0.00,WeatherDisplay:10.37,2013-04-16 05:17:00,
2013-04-16 01:18:00,60.1,37.5,28.88,SSE,158,8.1,8.1,43,0.00,CLR,,0.00,WeatherDisplay:10.37,2013-04-16 05:18:00,
2013-04-16 01:23:00,60.3,37.1,28.88,SSE,158,8.1,8.1,42,0.00,CLR,,0.00,WeatherDisplay:10.37,2013-04-16 05:23:00,
2013-04-16 01:24:00,60.3,37.1,28.88,SSE,158,8.1,8.1,42,0.00,CLR,,0.00,WeatherDisplay:10.37,2013-04-16 05:24:00,
2013-04-16 01:28:00,60.3,37.1,28.88,SSE,158,9.2,9.2,42,0.00,CLR,,0.00,WeatherDisplay:10.37,2013-04-16 05:28:00,
2013-04-16 01:29:00,60.3,37.1,28.88,SSE,158,9.2,9.2,42,0.00,CLR,,0.00,WeatherDisplay:10.37,2013-04-16 05:29:00,
2013-04-16 01:33:00,60.3,37.1,28.88,SSE,158,9.2,9.2,42,0.00,CLR,,0.00,WeatherDisplay:10.37,2013-04-16 05:33:00,
2013-04-16 01:34:00,60.3,37.1,28.88,SSE,158,9.2,9.2,42,0.00,CLR,,0.00,WeatherDisplay:10.37,2013-04-16 05:34:00,
2013-04-16 01:38:00,60.3,37.1,28.88,SSE,158,8.1,8.1,42,0.00,CLR,,0.00,WeatherDisplay:10.37,2013-04-16 05:38:00,
2013-04-16 01:39:00,60.3,37.1,28.88,SSE,158,7.1,7.1,42,0.00,CLR,,0.00,WeatherDisplay:10.37,2013-04-16 05:39:00,
2013-04-16 01:40:00,60.3,37.1,28.88,SSE,158,8.1,8.1,42,0.00,CLR,,0.00,WeatherDisplay:10.37,2013-04-16 05:40:00,
2013-04-16 01:44:00,60.1,37.5,28.88,ESE,112,3.5,3.5,43,0.00,CLR,,0.00,WeatherDisplay:10.37,2013-04-16 05:44:00,
2013-04-16 01:45:00,60.1,37.5,28.88,SSE,158,5.8,5.8,43,0.00,CLR,,0.00,WeatherDisplay:10.37,2013-04-16 05:45:00,
2013-04-16 01:49:00,60.1,38.1,28.88,SSE,158,5.8,5.8,44,0.00,CLR,,0.00,WeatherDisplay:10.37,2013-04-16 05:49:00,
2013-04-16 01:51:00,59.9,37.9,28.88,SSE,158,8.5,8.5,44,0.00,CLR,,0.00,WeatherDisplay:10.37,2013-04-16 05:51:00,
2013-04-16 01:54:00,59.9,37.9,28.88,SSE,158,6.9,6.9,44,0.00,CLR,,0.00,WeatherDisplay:10.37,2013-04-16 05:54:00,
2013-04-16 01:55:00,59.9,37.9,28.88,SSE,158,5.8,5.8,44,0.00,CLR,,0.00,WeatherDisplay:10.37,2013-04-16 05:55:00,
2013-04-16 01:56:00,59.7,37.8,28.88,SSE,158,5.8,5.8,44,0.00,CLR,,0.00,WeatherDisplay:10.37,2013-04-16 05:56:00,
2013-04-16 01:59:00,59.7,37.8,28.88,SSW,202,7.6,7.6,44,0.00,CLR,,0.00,WeatherDisplay:10.37,2013-04-16 05:59:00,
2013-04-16 02:00:00,59.7,37.8,28.88,SSW,202,8.1,8.1,44,0.00,CLR,,0.00,WeatherDisplay:10.37,2013-04-16 06:00:00,
2013-04-16 02:01:00,59.7,37.8,28.88,SSE,158,3.5,4.3,44,0.00,CLR,,0.00,WeatherDisplay:10.37,2013-04-16 06:01:00,
2013-04-16 02:02:00,59.7,37.8,28.88,SSE,158,5.6,5.6,44,0.00,CLR,,0.00,WeatherDisplay:10.37,2013-04-16 06:02:00,
2013-04-16 02:04:00,59.5,38.2,28.88,SSE,158,9.2,9.2,45,0.00,CLR,,0.00,WeatherDisplay:10.37,2013-04-16 06:04:00,
2013-04-16 02:05:00,59.5,38.2,28.88,SSE,159,7.0,9.0,45,0.00,CLR,,0.00,WeatherDisplay:10.37,2013-04-16 06:05:00,
2013-04-16 02:07:00,59.5,38.2,28.88,SSE,158,8.1,8.1,45,0.00,CLR,,0.00,WeatherDisplay:10.37,2013-04-16 06:07:00,
2013-04-16 02:09:00,59.5,38.2,28.88,SSE,158,6.9,6.9,45,0.00,CLR,,0.00,WeatherDisplay:10.37,2013-04-16 06:09:00,
2013-04-16 02:10:00,59.5,38.2,28.88,SSE,155,5.0,8.0,45,0.00,CLR,,0.00,WeatherDisplay:10.37,2013-04-16 06:10:00,
2013-04-16 02:12:00,59.5,38.2,28.88,SSE,158,9.2,9.2,45,0.00,CLR,,0.00,WeatherDisplay:10.37,2013-04-16 06:12:00,
2013-04-16 02:14:00,59.4,38.0,28.88,SSE,158,5.8,5.8,45,0.00,CLR,,0.00,WeatherDisplay:10.37,2013-04-16 06:14:00,
2013-04-16 02:15:00,59.4,38.0,28.88,SSE,159,3.0,10.0,45,0.00,CLR,,0.00,WeatherDisplay:10.37,2013-04-16 06:15:00,
2013-04-16 02:16:00,59.4,38.0,28.88,SSE,158,10.4,10.4,45,0.00,CLR,,0.00,WeatherDisplay:10.37,2013-04-16 06:16:00,
2013-04-16 02:17:00,59.4,38.0,28.88,SSE,158,8.5,8.5,45,0.00,CLR,,0.00,WeatherDisplay:10.37,2013-04-16 06:17:00,
2013-04-16 02:20:00,59.4,38.0,28.88,SSE,158,5.8,5.8,45,0.00,CLR,,0.00,WeatherDisplay:10.37,2013-04-16 06:20:00,
2013-04-16 02:21:00,59.2,37.8,28.88,SSE,158,5.8,5.8,45,0.00,CLR,,0.00,WeatherDisplay:10.37,2013-04-16 06:21:00,
2013-04-16 02:22:00,59.2,37.8,28.88,SSE,158,4.6,4.6,45,0.00,CLR,,0.00,WeatherDisplay:10.37,2013-04-16 06:22:00,
2013-04-16 02:25:00,59.2,37.8,28.88,SSE,158,5.8,5.8,45,0.00,CLR,,0.00,WeatherDisplay:10.37,2013-04-16 06:25:00,
2013-04-16 02:27:00,59.2,37.8,28.88,SSE,158,5.8,5.8,45,0.00,CLR,,0.00,WeatherDisplay:10.37,2013-04-16 06:27:00,
2013-04-16 02:30:00,59.2,38.4,28.88,SSE,158,5.8,5.8,46,0.00,CLR,,0.00,WeatherDisplay:10.37,2013-04-16 06:30:00,
2013-04-16 02:32:00,59.0,38.2,28.88,SSE,158,6.9,6.9,46,0.00,CLR,,0.00,WeatherDisplay:10.37,2013-04-16 06:32:00,
2013-04-16 02:33:00,59.0,38.2,28.88,SSE,158,6.9,6.9,46,0.00,CLR,,0.00,WeatherDisplay:10.37,2013-04-16 06:33:00,
2013-04-16 02:35:00,59.0,38.2,28.88,SSW,202,5.9,5.9,46,0.00,CLR,,0.00,WeatherDisplay:10.37,2013-04-16 06:35:00,
2013-04-16 02:37:00,58.8,38.1,28.88,SSW,202,5.8,5.8,46,0.00,CLR,,0.00,WeatherDisplay:10.37,2013-04-16 06:37:00,
2013-04-16 02:38:00,58.8,38.1,28.88,SSW,202,5.8,5.8,46,0.00,CLR,,0.00,WeatherDisplay:10.37,2013-04-16 06:38:00,
2013-04-16 02:40:00,58.8,38.1,28.88,SSE,158,10.4,10.4,46,0.00,CLR,,0.00,WeatherDisplay:10.37,2013-04-16 06:40:00,
2013-04-16 02:42:00,58.8,38.6,28.88,SSE,158,6.9,6.9,47,0.00,CLR,,0.00,WeatherDisplay:10.37,2013-04-16 06:42:00,
2013-04-16 02:43:00,58.8,38.6,28.88,SSE,158,7.4,7.4,47,0.00,CLR,,0.00,WeatherDisplay:10.37,2013-04-16 06:43:00,
2013-04-16 02:45:00,58.8,38.6,28.88,SSE,158,8.1,8.1,47,0.00,CLR,,0.00,WeatherDisplay:10.37,2013-04-16 06:45:00,
2013-04-16 02:47:00,58.8,38.1,28.88,SSE,158,9.2,9.2,46,0.00,CLR,,0.00,WeatherDisplay:10.37,2013-04-16 06:47:00,
2013-04-16 02:48:00,58.8,38.1,28.88,SSE,158,6.9,6.9,46,0.00,CLR,,0.00,WeatherDisplay:10.37,2013-04-16 06:48:00,
2013-04-16 02:50:00,58.6,38.5,28.88,SSE,158,10.4,10.4,47,0.00,CLR,,0.00,WeatherDisplay:10.37,2013-04-16 06:50:00,
2013-04-16 02:52:00,58.6,38.5,28.88,SSE,158,10.4,10.4,47,0.00,CLR,,0.00,WeatherDisplay:10.37,2013-04-16 06:52:00,
2013-04-16 02:53:00,58.5,38.3,28.88,SSE,158,10.4,10.4,47,0.00,CLR,,0.00,WeatherDisplay:10.37,2013-04-16 06:53:00,
2013-04-16 02:55:00,58.5,38.3,28.88,SSE,158,8.7,8.7,47,0.00,CLR,,0.00,WeatherDisplay:10.37,2013-04-16 06:55:00,
2013-04-16 02:56:00,58.5,38.3,28.88,SSE,158,9.2,9.2,47,0.00,CLR,,0.00,WeatherDisplay:10.37,2013-04-16 06:56:00,
2013-04-16 02:57:00,58.5,38.3,28.88,SSE,158,8.1,8.1,47,0.00,CLR,,0.00,WeatherDisplay:10.37,2013-04-16 06:57:00,
2013-04-16 02:58:00,58.5,38.3,28.88,SSE,158,9.2,9.2,47,0.00,CLR,,0.00,WeatherDisplay:10.37,2013-04-16 06:58:00,
2013-04-16 03:01:00,58.5,38.3,28.88,SSE,158,10.4,10.4,47,0.00,CLR,,0.00,WeatherDisplay:10.37,2013-04-16 07:01:00,
2013-04-16 03:02:00,58.5,38.3,28.88,SSE,158,10.4,10.4,47,0.00,CLR,,0.00,WeatherDisplay:10.37,2013-04-16 07:02:00,
2013-04-16 03:04:00,58.5,38.3,28.88,SSE,158,6.9,6.9,47,0.00,CLR,,0.00,WeatherDisplay:10.37,2013-04-16 07:04:00,
2013-04-16 03:06:00,58.5,38.3,28.88,SSE,158,8.1,8.1,47,0.00,CLR,,0.00,WeatherDisplay:10.37,2013-04-16 07:06:00,
2013-04-16 03:07:00,58.5,38.3,28.88,SSE,158,8.7,8.7,47,0.00,CLR,,0.00,WeatherDisplay:10.37,2013-04-16 07:07:00,
2013-04-16 03:09:00,58.5,38.3,28.88,SSE,158,9.2,9.2,47,0.00,CLR,,0.00,WeatherDisplay:10.37,2013-04-16 07:09:00,
2013-04-16 03:11:00,58.5,38.3,28.88,SSE,158,6.0,6.0,47,0.00,CLR,,0.00,WeatherDisplay:10.37,2013-04-16 07:11:00,
2013-04-16 03:12:00,58.5,38.3,28.88,SSE,158,5.8,5.8,47,0.00,CLR,,0.00,WeatherDisplay:10.37,2013-04-16 07:12:00,
2013-04-16 03:13:00,58.5,38.3,28.88,South,180,5.9,5.9,47,0.00,CLR,,0.00,WeatherDisplay:10.37,2013-04-16 07:13:00,
2013-04-16 03:14:00,58.5,38.3,28.88,SSW,202,7.4,7.4,47,0.00,CLR,,0.00,WeatherDisplay:10.37,2013-04-16 07:14:00,
2013-04-16 03:17:00,58.5,38.3,28.88,SSE,158,6.9,6.9,47,0.00,CLR,,0.00,WeatherDisplay:10.37,2013-04-16 07:17:00,
2013-04-16 03:18:00,58.5,38.3,28.88,SSE,158,8.1,8.1,47,0.00,CLR,,0.00,WeatherDisplay:10.37,2013-04-16 07:18:00,
2013-04-16 03:19:00,58.5,38.3,28.88,SSE,158,8.1,8.1,47,0.00,CLR,,0.00,WeatherDisplay:10.37,2013-04-16 07:19:00,
2013-04-16 03:20:00,58.5,38.3,28.88,SSE,162,6.0,8.0,47,0.00,CLR,,0.00,WeatherDisplay:10.37,2013-04-16 07:20:00,
2013-04-16 03:22:00,58.5,38.3,28.88,SSE,158,5.8,5.8,47,0.00,CLR,,0.00,WeatherDisplay:10.37,2013-04-16 07:22:00,
2013-04-16 03:23:00,58.5,38.3,28.88,SSE,158,5.8,5.8,47,0.00,CLR,,0.00,WeatherDisplay:10.37,2013-04-16 07:23:00,
2013-04-16 03:25:00,58.5,38.3,28.88,SSE,158,5.8,5.8,47,0.00,CLR,,0.00,WeatherDisplay:10.37,2013-04-16 07:25:00,
2013-04-16 03:28:00,58.5,38.3,28.88,SSW,202,5.8,5.8,47,0.00,CLR,,0.00,WeatherDisplay:10.37,2013-04-16 07:28:00,
2013-04-16 03:29:00,58.5,38.3,28.88,SSE,158,4.6,4.6,47,0.00,CLR,,0.00,WeatherDisplay:10.37,2013-04-16 07:29:00,
2013-04-16 03:30:00,58.5,38.3,28.88,SSE,158,3.5,3.5,47,0.00,CLR,,0.00,WeatherDisplay:10.37,2013-04-16 07:30:00,
2013-04-16 03:33:00,58.3,38.1,28.88,NNW,338,6.0,6.0,47,0.00,CLR,,0.00,WeatherDisplay:10.37,2013-04-16 07:33:00,
2013-04-16 03:34:00,58.1,38.0,28.91,WNW,292,10.4,10.4,47,0.00,CLR,,0.00,WeatherDisplay:10.37,2013-04-16 07:34:00,
2013-04-16 03:35:00,57.9,37.8,28.91,North,0,6.9,6.9,47,0.00,CLR,,0.00,WeatherDisplay:10.37,2013-04-16 07:35:00,
2013-04-16 03:36:00,57.7,37.6,28.91,WNW,292,6.9,6.9,47,0.00,CLR,,0.00,WeatherDisplay:10.37,2013-04-16 07:36:00,
2013-04-16 03:38:00,56.8,37.3,28.91,NNW,338,8.1,8.1,48,0.00,CLR,,0.00,WeatherDisplay:10.37,2013-04-16 07:38:00,
2013-04-16 03:39:00,56.7,37.2,28.91,NNW,338,8.5,8.5,48,0.00,CLR,,0.00,WeatherDisplay:10.37,2013-04-16 07:39:00,
2013-04-16 03:40:00,56.5,37.0,28.91,NNW,338,9.2,9.2,48,0.00,CLR,,0.00,WeatherDisplay:10.37,2013-04-16 07:40:00,
2013-04-16 03:41:00,56.5,37.0,28.91,NNW,338,10.7,10.7,48,0.00,CLR,,0.00,WeatherDisplay:10.37,2013-04-16 07:41:00,
2013-04-16 03:44:00,55.9,36.5,28.91,NNW,338,15.0,15.0,48,0.00,CLR,,0.00,WeatherDisplay:10.37,2013-04-16 07:44:00,
2013-04-16 03:45:00,55.2,36.4,28.91,NNW,338,8.1,8.1,49,0.00,CLR,,0.00,WeatherDisplay:10.37,2013-04-16 07:45:00,
2013-04-16 03:47:00,55.0,36.2,28.91,NNW,338,5.8,5.8,49,0.00,CLR,,0.00,WeatherDisplay:10.37,2013-04-16 07:47:00,
2013-04-16 03:49:00,55.0,36.7,28.91,NNE,22,11.5,11.5,50,0.00,CLR,,0.00,WeatherDisplay:10.37,2013-04-16 07:49:00,
2013-04-16 03:50:00,55.0,36.7,28.91,NNE,22,11.5,11.5,50,0.00,CLR,,0.00,WeatherDisplay:10.37,2013-04-16 07:50:00,
2013-04-16 03:52:00,55.0,36.7,28.91,NNW,338,11.5,11.5,50,0.00,CLR,,0.00,WeatherDisplay:10.37,2013-04-16 07:52:00,
2013-04-16 03:54:00,54.3,35.5,28.91,NNE,22,13.8,13.8,49,0.00,CLR,,0.00,WeatherDisplay:10.37,2013-04-16 07:54:00,
2013-04-16 03:55:00,54.3,35.5,28.91,NNE,22,10.4,10.4,49,0.00,CLR,,0.00,WeatherDisplay:10.37,2013-04-16 07:55:00,
2013-04-16 03:56:00,54.1,35.4,28.91,NNE,22,10.4,10.4,49,0.00,CLR,,0.00,WeatherDisplay:10.37,2013-04-16 07:56:00,
2013-04-16 03:57:00,54.1,35.4,28.91,NNE,22,10.4,10.9,49,0.00,CLR,,0.00,WeatherDisplay:10.37,2013-04-16 07:57:00,
2013-04-16 03:59:00,54.0,35.2,28.91,NNE,22,15.0,15.0,49,0.00,CLR,,0.00,WeatherDisplay:10.37,2013-04-16 07:59:00,
2013-04-16 04:00:00,53.6,34.9,28.91,NNE,22,11.5,11.5,49,0.00,CLR,,0.00,WeatherDisplay:10.37,2013-04-16 08:00:00,
2013-04-16 04:01:00,53.6,34.9,28.91,NNE,22,11.5,11.5,49,0.00,CLR,,0.00,WeatherDisplay:10.37,2013-04-16 08:01:00,
2013-04-16 04:02:00,53.6,34.9,28.91,NNW,338,13.8,13.8,49,0.00,CLR,,0.00,WeatherDisplay:10.37,2013-04-16 08:02:00,
2013-04-16 04:04:00,53.2,35.1,28.91,NNW,338,9.2,9.2,50,0.00,CLR,,0.00,WeatherDisplay:10.37,2013-04-16 08:04:00,
2013-04-16 04:05:00,53.1,34.9,28.91,NNW,338,6.9,6.9,50,0.00,CLR,,0.00,WeatherDisplay:10.37,2013-04-16 08:05:00,
2013-04-16 04:06:00,53.1,34.9,28.91,NNE,22,7.1,7.1,50,0.00,CLR,,0.00,WeatherDisplay:10.37,2013-04-16 08:06:00,
2013-04-16 04:07:00,53.1,34.9,28.91,NNW,338,9.4,9.4,50,0.00,CLR,,0.00,WeatherDisplay:10.37,2013-04-16 08:07:00,
2013-04-16 04:09:00,52.5,34.4,28.91,NNE,22,10.4,10.4,50,0.00,CLR,,0.00,WeatherDisplay:10.37,2013-04-16 08:09:00,
2013-04-16 04:10:00,52.5,34.9,28.91,NNE,22,9.2,9.2,51,0.00,CLR,,0.00,WeatherDisplay:10.37,2013-04-16 08:10:00,
2013-04-16 04:12:00,52.2,34.6,28.91,NNW,338,7.4,7.4,51,0.00,CLR,,0.00,WeatherDisplay:10.37,2013-04-16 08:12:00,
2013-04-16 04:15:00,52.0,34.9,28.91,NNE,22,17.3,17.3,52,0.00,CLR,,0.00,WeatherDisplay:10.37,2013-04-16 08:15:00,
2013-04-16 04:17:00,51.6,35.5,28.91,NNE,22,10.4,10.4,54,0.00,CLR,,0.00,WeatherDisplay:10.37,2013-04-16 08:17:00,
2013-04-16 04:19:00,51.6,35.5,28.91,NNW,338,5.8,5.8,54,0.00,CLR,,0.00,WeatherDisplay:10.37,2013-04-16 08:19:00,
2013-04-16 04:20:00,51.4,35.3,28.91,North,0,5.8,5.8,54,0.00,CLR,,0.00,WeatherDisplay:10.37,2013-04-16 08:20:00,
2013-04-16 04:22:00,51.3,35.2,28.91,NNW,338,4.6,4.6,54,0.00,CLR,,0.00,WeatherDisplay:10.37,2013-04-16 08:22:00,
2013-04-16 04:25:00,51.1,35.5,28.91,North,0,13.8,13.8,55,0.00,CLR,,0.00,WeatherDisplay:10.37,2013-04-16 08:25:00,
2013-04-16 04:26:00,50.9,35.7,28.91,NNE,22,6.9,6.9,56,0.00,CLR,,0.00,WeatherDisplay:10.37,2013-04-16 08:26:00,
2013-04-16 04:27:00,50.9,35.7,28.91,NNE,22,8.1,8.1,56,0.00,CLR,,0.00,WeatherDisplay:10.37,2013-04-16 08:27:00,
2013-04-16 04:30:00,50.9,35.7,28.91,NNW,338,9.8,9.8,56,0.00,CLR,,0.00,WeatherDisplay:10.37,2013-04-16 08:30:00,
2013-04-16 04:31:00,50.9,36.2,28.91,NNW,338,9.2,9.2,57,0.00,CLR,,0.00,WeatherDisplay:10.37,2013-04-16 08:31:00,
2013-04-16 04:33:00,50.7,36.0,28.94,WNW,292,5.8,5.8,57,0.00,CLR,,0.00,WeatherDisplay:10.37,2013-04-16 08:33:00,
2013-04-16 04:35:00,50.5,35.9,28.94,NNW,338,7.1,7.1,57,0.00,CLR,,0.00,WeatherDisplay:10.37,2013-04-16 08:35:00,
2013-04-16 04:36:00,50.5,35.9,28.94,NNE,22,6.9,6.9,57,0.00,CLR,,0.00,WeatherDisplay:10.37,2013-04-16 08:36:00,
2013-04-16 04:37:00,50.5,35.9,28.94,NNE,22,6.4,6.4,57,0.00,CLR,,0.00,WeatherDisplay:10.37,2013-04-16 08:37:00,
2013-04-16 04:38:00,50.5,36.3,28.94,NNW,338,9.2,9.2,58,0.00,CLR,,0.00,WeatherDisplay:10.37,2013-04-16 08:38:00,
2013-04-16 04:40:00,50.4,36.1,28.94,NNE,22,9.2,9.2,58,0.00,CLR,,0.00,WeatherDisplay:10.37,2013-04-16 08:40:00,
2013-04-16 04:41:00,50.4,36.6,28.94,NNW,338,8.1,8.1,59,0.00,CLR,,0.00,WeatherDisplay:10.37,2013-04-16 08:41:00,
2013-04-16 04:42:00,50.4,36.6,28.94,North,0,8.1,8.1,59,0.00,CLR,,0.00,WeatherDisplay:10.37,2013-04-16 08:42:00,
2013-04-16 04:43:00,50.2,36.4,28.94,NNW,338,9.2,9.2,59,0.00,CLR,,0.00,WeatherDisplay:10.37,2013-04-16 08:43:00,
2013-04-16 04:45:00,50.2,36.8,28.94,North,0,8.1,8.1,60,0.00,CLR,,0.00,WeatherDisplay:10.37,2013-04-16 08:45:00,
2013-04-16 04:46:00,50.2,36.8,28.94,North,0,8.1,8.1,60,0.00,CLR,,0.00,WeatherDisplay:10.37,2013-04-16 08:46:00,
2013-04-16 04:47:00,50.2,37.2,28.94,NNW,338,8.1,8.1,61,0.00,CLR,,0.00,WeatherDisplay:10.37,2013-04-16 08:47:00,
2013-04-16 04:48:00,50.2,37.2,28.94,NNE,22,6.9,6.9,61,0.00,CLR,,0.00,WeatherDisplay:10.37,2013-04-16 08:48:00,
2013-04-16 04:51:00,50.0,37.1,28.94,NNW,338,5.4,5.4,61,0.00,CLR,,0.00,WeatherDisplay:10.37,2013-04-16 08:51:00,
2013-04-16 04:52:00,49.8,36.9,28.94,NNE,22,5.8,5.8,61,0.00,CLR,,0.00,WeatherDisplay:10.37,2013-04-16 08:52:00,
2013-04-16 04:53:00,49.8,37.3,28.94,NNW,338,5.9,5.9,62,0.00,CLR,,0.00,WeatherDisplay:10.37,2013-04-16 08:53:00,
2013-04-16 04:56:00,49.8,37.3,28.94,NNW,338,5.8,5.8,62,0.00,CLR,,0.00,WeatherDisplay:10.37,2013-04-16 08:56:00,
2013-04-16 04:57:00,49.8,37.3,28.94,North,0,5.8,5.8,62,0.00,CLR,,0.00,WeatherDisplay:10.37,2013-04-16 08:57:00,
2013-04-16 04:58:00,49.8,37.3,28.94,North,0,6.2,6.2,62,0.00,CLR,,0.00,WeatherDisplay:10.37,2013-04-16 08:58:00,
2013-04-16 05:01:00,49.8,37.7,28.94,NNE,22,9.2,9.2,63,0.00,CLR,,0.00,WeatherDisplay:10.37,2013-04-16 09:01:00,
2013-04-16 05:02:00,49.8,37.7,28.94,NNW,338,5.8,5.8,63,0.00,CLR,,0.00,WeatherDisplay:10.37,2013-04-16 09:02:00,
2013-04-16 05:03:00,49.6,37.6,28.91,North,0,5.8,6.2,63,0.00,CLR,,0.00,WeatherDisplay:10.37,2013-04-16 09:03:00,
2013-04-16 05:06:00,49.6,37.6,28.91,North,0,5.8,5.8,63,0.00,CLR,,0.00,WeatherDisplay:10.37,2013-04-16 09:06:00,
2013-04-16 05:07:00,49.6,37.6,28.91,NNE,22,3.5,3.5,63,0.00,CLR,,0.00,WeatherDisplay:10.37,2013-04-16 09:07:00,
2013-04-16 05:08:00,49.5,37.4,28.91,NNE,22,6.0,6.0,63,0.00,CLR,,0.00,WeatherDisplay:10.37,2013-04-16 09:08:00,
2013-04-16 05:09:00,49.5,37.4,28.91,NNW,338,5.8,5.8,63,0.00,CLR,,0.00,WeatherDisplay:10.37,2013-04-16 09:09:00,
2013-04-16 05:11:00,49.5,37.4,28.91,North,0,5.8,5.8,63,0.00,CLR,,0.00,WeatherDisplay:10.37,2013-04-16 09:11:00,
2013-04-16 05:12:00,49.5,37.4,28.91,NNW,338,5.8,5.8,63,0.00,CLR,,0.00,WeatherDisplay:10.37,2013-04-16 09:12:00,
2013-04-16 05:13:00,49.5,37.4,28.91,NNW,338,5.8,5.8,63,0.00,CLR,,0.00,WeatherDisplay:10.37,2013-04-16 09:13:00,
2013-04-16 05:14:00,49.5,37.4,28.91,NNW,338,5.8,5.8,63,0.00,CLR,,0.00,WeatherDisplay:10.37,2013-04-16 09:14:00,
2013-04-16 05:17:00,49.5,37.8,28.91,NNW,338,7.8,7.8,64,0.00,CLR,,0.00,WeatherDisplay:10.37,2013-04-16 09:17:00,
2013-04-16 05:18:00,49.5,37.8,28.91,North,0,8.1,8.1,64,0.00,CLR,,0.00,WeatherDisplay:10.37,2013-04-16 09:18:00,
2013-04-16 05:19:00,49.5,37.8,28.91,NNW,338,6.9,6.9,64,0.00,CLR,,0.00,WeatherDisplay:10.37,2013-04-16 09:19:00,
2013-04-16 05:22:00,49.3,37.6,28.91,North,0,5.8,5.8,64,0.00,CLR,,0.00,WeatherDisplay:10.37,2013-04-16 09:22:00,
2013-04-16 05:23:00,49.3,37.6,28.91,NNE,22,4.6,4.6,64,0.00,CLR,,0.00,WeatherDisplay:10.37,2013-04-16 09:23:00,
2013-04-16 05:24:00,49.3,37.6,28.91,NNW,338,6.9,6.9,64,0.00,CLR,,0.00,WeatherDisplay:10.37,2013-04-16 09:24:00,
2013-04-16 05:27:00,49.3,37.6,28.91,North,0,8.1,8.1,64,0.00,CLR,,0.00,WeatherDisplay:10.37,2013-04-16 09:27:00,
2013-04-16 05:28:00,49.3,37.6,28.91,NNW,338,4.6,4.6,64,0.00,CLR,,0.00,WeatherDisplay:10.37,2013-04-16 09:28:00,
2013-04-16 05:29:00,49.3,37.6,28.91,NNE,22,5.8,5.8,64,0.00,CLR,,0.00,WeatherDisplay:10.37,2013-04-16 09:29:00,
2013-04-16 05:32:00,49.3,37.6,28.91,NNE,22,4.6,4.6,64,0.00,CLR,,0.00,WeatherDisplay:10.37,2013-04-16 09:32:00,
2013-04-16 05:33:00,49.3,37.6,28.91,NNE,22,2.3,0.0,64,0.00,CLR,,0.00,WeatherDisplay:10.37,2013-04-16 09:33:00,
2013-04-16 05:34:00,49.3,37.6,28.91,NNW,338,2.3,2.3,64,0.00,CLR,,0.00,WeatherDisplay:10.37,2013-04-16 09:34:00,
2013-04-16 05:35:00,49.1,37.4,28.91,NNW,338,2.4,0.0,64,0.00,CLR,,0.00,WeatherDisplay:10.37,2013-04-16 09:35:00,
2013-04-16 05:38:00,49.1,37.4,28.91,NNW,338,2.3,2.3,64,0.00,CLR,,0.00,WeatherDisplay:10.37,2013-04-16 09:38:00,
2013-04-16 05:39:00,49.1,37.4,28.91,NNW,338,2.3,0.0,64,0.00,CLR,,0.00,WeatherDisplay:10.37,2013-04-16 09:39:00,
2013-04-16 05:40:00,49.1,37.4,28.91,NNW,338,2.2,0.0,64,0.00,CLR,,0.00,WeatherDisplay:10.37,2013-04-16 09:40:00,
2013-04-16 05:43:00,49.1,37.4,28.91,NW,315,2.3,2.3,64,0.00,CLR,,0.00,WeatherDisplay:10.37,2013-04-16 09:43:00,
2013-04-16 05:44:00,49.1,37.4,28.91,NW,315,2.3,0.0,64,0.00,CLR,,0.00,WeatherDisplay:10.37,2013-04-16 09:44:00,
2013-04-16 05:45:00,49.1,37.4,28.91,NNE,22,1.1,0.0,64,0.00,CLR,,0.00,WeatherDisplay:10.37,2013-04-16 09:45:00,
2013-04-16 05:48:00,49.1,37.4,28.91,WNW,292,1.1,1.1,64,0.00,CLR,,0.00,WeatherDisplay:10.37,2013-04-16 09:48:00,
2013-04-16 05:49:00,48.9,37.3,28.94,North,0,2.6,2.6,64,0.00,CLR,,0.00,WeatherDisplay:10.37,2013-04-16 09:49:00,
2013-04-16 05:50:00,48.9,37.3,28.94,North,0,4.9,4.9,64,0.00,CLR,,0.00,WeatherDisplay:10.37,2013-04-16 09:50:00,
2013-04-16 05:53:00,49.1,37.4,28.94,NNW,338,4.6,4.6,64,0.00,CLR,,0.00,WeatherDisplay:10.37,2013-04-16 09:53:00,
2013-04-16 05:54:00,49.1,37.4,28.94,NNE,22,4.6,4.6,64,0.00,CLR,,0.00,WeatherDisplay:10.37,2013-04-16 09:54:00,
2013-04-16 05:55:00,49.1,37.4,28.94,North,0,3.5,3.5,64,0.00,CLR,,0.00,WeatherDisplay:10.37,2013-04-16 09:55:00,
2013-04-16 05:56:00,49.1,37.4,28.94,North,0,4.6,4.6,64,0.00,CLR,,0.00,WeatherDisplay:10.37,2013-04-16 09:56:00,
2013-04-16 05:58:00,49.1,37.4,28.94,North,0,4.6,4.6,64,0.00,CLR,,0.00,WeatherDisplay:10.37,2013-04-16 09:58:00,
2013-04-16 05:59:00,48.9,37.3,28.94,NNW,338,4.6,4.6,64,0.00,CLR,,0.00,WeatherDisplay:10.37,2013-04-16 09:59:00,
2013-04-16 06:00:00,48.9,37.7,28.94,NNW,338,4.6,4.6,65,0.00,CLR,,0.00,WeatherDisplay:10.37,2013-04-16 10:00:00,
2013-04-16 06:01:00,48.9,37.7,28.94,NNW,338,3.6,3.6,65,0.00,CLR,,0.00,WeatherDisplay:10.37,2013-04-16 10:01:00,
2013-04-16 06:03:00,48.9,37.7,28.94,NNW,338,4.6,4.6,65,0.00,CLR,,0.00,WeatherDisplay:10.37,2013-04-16 10:03:00,
2013-04-16 06:04:00,48.9,37.7,28.94,North,0,4.6,4.6,65,0.00,CLR,,0.00,WeatherDisplay:10.37,2013-04-16 10:04:00,
2013-04-16 06:05:00,48.9,37.7,28.94,NNW,342,3.0,5.0,65,0.00,CLR,,0.00,WeatherDisplay:10.37,2013-04-16 10:05:00,
2013-04-16 06:07:00,48.9,37.7,28.94,NNE,22,6.9,6.9,65,0.00,CLR,,0.00,WeatherDisplay:10.37,2013-04-16 10:07:00,
2013-04-16 06:09:00,48.9,37.7,28.94,NNW,338,6.9,6.9,65,0.00,CLR,,0.00,WeatherDisplay:10.37,2013-04-16 10:09:00,
2013-04-16 06:10:00,48.9,37.7,28.94,NNW,338,4.6,4.6,65,0.00,CLR,,0.00,WeatherDisplay:10.37,2013-04-16 10:10:00,
2013-04-16 06:11:00,48.9,37.7,28.94,North,0,4.6,4.6,65,0.00,CLR,,0.00,WeatherDisplay:10.37,2013-04-16 10:11:00,
2013-04-16 06:12:00,48.9,37.7,28.94,NNW,338,4.6,4.6,65,0.00,CLR,,0.00,WeatherDisplay:10.37,2013-04-16 10:12:00,
2013-04-16 06:14:00,48.7,37.5,28.94,NW,315,3.5,3.5,65,0.00,CLR,,0.00,WeatherDisplay:10.37,2013-04-16 10:14:00,
2013-04-16 06:16:00,48.7,37.5,28.94,NNW,338,5.8,5.8,65,0.00,CLR,,0.00,WeatherDisplay:10.37,2013-04-16 10:16:00,
2013-04-16 06:17:00,48.7,37.5,28.94,NNW,338,5.8,5.8,65,0.00,CLR,,0.00,WeatherDisplay:10.37,2013-04-16 10:17:00,
2013-04-16 06:19:00,48.7,37.5,28.97,NNW,338,5.8,5.8,65,0.00,CLR,,0.00,WeatherDisplay:10.37,2013-04-16 10:19:00,
2013-04-16 06:21:00,48.7,37.5,28.97,NNW,338,6.9,6.9,65,0.00,CLR,,0.00,WeatherDisplay:10.37,2013-04-16 10:21:00,
2013-04-16 06:22:00,48.7,37.5,28.97,North,0,8.1,8.1,65,0.00,CLR,,0.00,WeatherDisplay:10.37,2013-04-16 10:22:00,
2013-04-16 06:24:00,48.7,37.9,28.97,NNW,338,6.2,6.2,66,0.00,CLR,,0.00,WeatherDisplay:10.37,2013-04-16 10:24:00,
2013-04-16 06:26:00,48.7,37.9,28.97,NNW,338,5.8,5.8,66,0.00,CLR,,0.00,WeatherDisplay:10.37,2013-04-16 10:26:00,
2013-04-16 06:27:00,48.7,37.9,28.97,NNW,338,4.6,4.6,66,0.00,CLR,,0.00,WeatherDisplay:10.37,2013-04-16 10:27:00,
2013-04-16 06:29:00,48.7,37.9,28.97,North,0,4.6,4.6,66,0.00,CLR,,0.00,WeatherDisplay:10.37,2013-04-16 10:29:00,
2013-04-16 06:30:00,48.7,37.9,28.97,North,0,8.7,8.7,66,0.00,CLR,,0.00,WeatherDisplay:10.37,2013-04-16 10:30:00,
2013-04-16 06:31:00,48.7,37.9,28.97,NNW,338,9.2,9.2,66,0.00,CLR,,0.00,WeatherDisplay:10.37,2013-04-16 10:31:00,
2013-04-16 06:33:00,48.7,37.9,28.97,NNW,338,4.6,4.6,66,0.00,CLR,,0.00,WeatherDisplay:10.37,2013-04-16 10:33:00,
2013-04-16 06:34:00,48.7,37.9,28.94,NNE,22,4.6,4.6,66,0.00,CLR,,0.00,WeatherDisplay:10.37,2013-04-16 10:34:00,
2013-04-16 06:35:00,48.7,37.9,28.94,NNE,22,4.6,4.6,66,0.00,CLR,,0.00,WeatherDisplay:10.37,2013-04-16 10:35:00,
2013-04-16 06:36:00,48.7,37.9,28.94,NNW,338,6.9,6.9,66,0.00,CLR,,0.00,WeatherDisplay:10.37,2013-04-16 10:36:00,
2013-04-16 06:37:00,48.7,37.9,28.94,NNE,22,5.8,5.8,66,0.00,CLR,,0.00,WeatherDisplay:10.37,2013-04-16 10:37:00,
2013-04-16 06:38:00,48.7,37.9,28.94,NNE,22,4.6,4.6,66,0.00,CLR,,0.00,WeatherDisplay:10.37,2013-04-16 10:38:00,
2013-04-16 06:39:00,48.7,37.9,28.94,NNE,22,3.5,0.0,66,0.00,CLR,,0.00,WeatherDisplay:10.37,2013-04-16 10:39:00,
2013-04-16 06:40:00,48.7,37.9,28.94,NNE,22,4.9,0.0,66,0.00,CLR,,0.00,WeatherDisplay:10.37,2013-04-16 10:40:00,
2013-04-16 06:41:00,48.7,37.9,28.94,NNE,22,6.4,6.4,66,0.00,CLR,,0.00,WeatherDisplay:10.37,2013-04-16 10:41:00,
2013-04-16 06:42:00,48.7,37.9,28.94,NNE,22,7.4,7.4,66,0.00,CLR,,0.00,WeatherDisplay:10.37,2013-04-16 10:42:00,
2013-04-16 06:43:00,48.7,37.9,28.94,NNE,22,6.9,6.9,66,0.00,CLR,,0.00,WeatherDisplay:10.37,2013-04-16 10:43:00,
2013-04-16 06:44:00,48.7,37.9,28.94,North,0,6.9,6.9,66,0.00,CLR,,0.00,WeatherDisplay:10.37,2013-04-16 10:44:00,
2013-04-16 06:46:00,48.7,37.5,28.94,NNE,22,4.6,4.6,65,0.00,CLR,,0.00,WeatherDisplay:10.37,2013-04-16 10:46:00,
2013-04-16 06:47:00,48.7,37.5,28.94,NW,315,4.6,4.6,65,0.00,CLR,,0.00,WeatherDisplay:10.37,2013-04-16 10:47:00,
2013-04-16 06:48:00,48.7,37.5,28.94,NW,315,3.5,3.5,65,0.00,CLR,,0.00,WeatherDisplay:10.37,2013-04-16 10:48:00,
2013-04-16 06:49:00,48.7,37.5,28.94,NNW,338,2.3,2.3,65,0.00,CLR,,0.00,WeatherDisplay:10.37,2013-04-16 10:49:00,
2013-04-16 06:51:00,48.7,37.5,28.94,NNW,338,2.3,2.3,65,0.00,CLR,,0.00,WeatherDisplay:10.37,2013-04-16 10:51:00,
2013-04-16 06:52:00,48.7,37.5,28.94,WNW,292,1.1,0.0,65,0.00,CLR,,0.00,WeatherDisplay:10.37,2013-04-16 10:52:00,
2013-04-16 06:53:00,48.7,37.5,28.94,NNW,338,0.0,0.0,65,0.00,CLR,,0.00,WeatherDisplay:10.37,2013-04-16 10:53:00,
2013-04-16 06:54:00,48.7,37.5,28.94,NW,315,1.1,0.0,65,0.00,CLR,,0.00,WeatherDisplay:10.37,2013-04-16 10:54:00,
2013-04-16 06:56:00,48.7,37.5,28.94,WNW,292,2.3,2.3,65,0.00,CLR,,0.00,WeatherDisplay:10.37,2013-04-16 10:56:00,
2013-04-16 06:57:00,48.7,37.5,28.94,WNW,292,0.0,0.0,65,0.00,CLR,,0.00,WeatherDisplay:10.37,2013-04-16 10:57:00,
2013-04-16 06:58:00,48.7,37.5,28.94,NNW,338,0.0,0.0,65,0.00,CLR,,0.00,WeatherDisplay:10.37,2013-04-16 10:58:00,
2013-04-16 06:59:00,48.7,37.5,28.94,NNW,338,0.0,0.0,65,0.00,CLR,,0.00,WeatherDisplay:10.37,2013-04-16 10:59:00,
2013-04-16 07:00:00,48.6,37.3,28.94,NNW,338,0.0,0.0,65,0.00,CLR,,0.00,WeatherDisplay:10.37,2013-04-16 11:00:00,
2013-04-16 07:02:00,48.6,37.3,28.94,West,270,0.0,0.0,65,0.00,CLR,,0.00,WeatherDisplay:10.37,2013-04-16 11:02:00,
2013-04-16 07:03:00,48.6,37.3,28.97,NNW,338,0.0,0.0,65,0.00,CLR,,0.00,WeatherDisplay:10.37,2013-04-16 11:03:00,
2013-04-16 07:04:00,48.6,37.3,28.97,NW,315,1.4,0.0,65,0.00,CLR,,0.00,WeatherDisplay:10.37,2013-04-16 11:04:00,
2013-04-16 07:05:00,48.6,37.3,28.97,WNW,292,1.1,0.0,65,0.00,CLR,,0.00,WeatherDisplay:10.37,2013-04-16 11:05:00,
2013-04-16 07:07:00,48.6,37.3,28.97,NNW,338,4.6,4.6,65,0.00,CLR,,0.00,WeatherDisplay:10.37,2013-04-16 11:07:00,
2013-04-16 07:08:00,48.6,37.3,28.97,West,270,4.6,4.6,65,0.00,CLR,,0.00,WeatherDisplay:10.37,2013-04-16 11:08:00,
2013-04-16 07:09:00,48.6,37.3,28.97,NW,315,2.3,0.0,65,0.00,CLR,,0.00,WeatherDisplay:10.37,2013-04-16 11:09:00,
2013-04-16 07:10:00,48.7,37.5,28.97,NNW,338,2.3,0.0,65,0.00,CLR,,0.00,WeatherDisplay:10.37,2013-04-16 11:10:00,
2013-04-16 07:12:00,48.7,37.5,28.97,North,0,4.9,4.9,65,0.00,CLR,,0.00,WeatherDisplay:10.37,2013-04-16 11:12:00,
2013-04-16 07:13:00,48.7,37.5,28.97,WNW,292,4.6,4.6,65,0.00,CLR,,0.00,WeatherDisplay:10.37,2013-04-16 11:13:00,
2013-04-16 07:14:00,48.6,37.3,28.97,NNW,338,3.5,3.6,65,0.00,CLR,,0.00,WeatherDisplay:10.37,2013-04-16 11:14:00,
2013-04-16 07:15:00,48.6,37.3,28.97,NNW,338,4.7,4.7,65,0.00,CLR,,0.00,WeatherDisplay:10.37,2013-04-16 11:15:00,
2013-04-16 07:17:00,48.6,37.3,28.97,NNW,338,5.8,5.8,65,0.00,CLR,,0.00,WeatherDisplay:10.37,2013-04-16 11:17:00,
2013-04-16 07:18:00,48.6,37.3,28.97,NNW,338,5.8,5.8,65,0.00,CLR,,0.00,WeatherDisplay:10.37,2013-04-16 11:18:00,
2013-04-16 07:19:00,48.6,37.3,28.97,NNW,338,6.0,6.0,65,0.00,CLR,,0.00,WeatherDisplay:10.37,2013-04-16 11:19:00,
2013-04-16 07:20:00,48.6,37.3,28.97,North,0,6.4,6.4,65,0.00,CLR,,0.00,WeatherDisplay:10.37,2013-04-16 11:20:00,
2013-04-16 07:22:00,48.4,37.2,28.97,NW,315,8.1,8.1,65,0.00,CLR,,0.00,WeatherDisplay:10.37,2013-04-16 11:22:00,
2013-04-16 07:23:00,48.4,37.2,28.97,NNW,338,5.8,5.8,65,0.00,CLR,,0.00,WeatherDisplay:10.37,2013-04-16 11:23:00,
2013-04-16 07:24:00,48.4,37.2,28.97,NNW,338,5.8,5.8,65,0.00,CLR,,0.00,WeatherDisplay:10.37,2013-04-16 11:24:00,
2013-04-16 07:25:00,48.4,37.2,28.97,NNE,22,6.9,6.9,65,0.00,CLR,,0.00,WeatherDisplay:10.37,2013-04-16 11:25:00,
2013-04-16 07:27:00,48.4,37.2,28.97,West,270,10.4,10.4,65,0.00,CLR,,0.00,WeatherDisplay:10.37,2013-04-16 11:27:00,
2013-04-16 07:28:00,48.4,37.2,28.97,North,0,11.2,11.2,65,0.00,CLR,,0.00,WeatherDisplay:10.37,2013-04-16 11:28:00,
2013-04-16 07:29:00,48.4,37.2,28.97,North,0,11.5,11.5,65,0.00,CLR,,0.00,WeatherDisplay:10.37,2013-04-16 11:29:00,
2013-04-16 07:30:00,48.4,37.2,28.97,NNW,338,6.9,6.9,65,0.00,CLR,,0.00,WeatherDisplay:10.37,2013-04-16 11:30:00,
2013-04-16 07:31:00,48.4,37.2,28.97,NNE,22,10.2,10.2,65,0.00,CLR,,0.00,WeatherDisplay:10.37,2013-04-16 11:31:00,
2013-04-16 07:33:00,48.4,37.2,28.97,NNW,338,10.4,10.4,65,0.00,CLR,,0.00,WeatherDisplay:10.37,2013-04-16 11:33:00,
2013-04-16 07:34:00,48.4,37.2,28.97,NNW,338,6.9,6.9,65,0.00,CLR,,0.00,WeatherDisplay:10.37,2013-04-16 11:34:00,
2013-04-16 07:35:00,48.4,37.2,28.97,NW,315,8.1,8.1,65,0.00,CLR,,0.00,WeatherDisplay:10.37,2013-04-16 11:35:00,
2013-04-16 07:36:00,48.2,37.0,28.97,North,0,5.8,5.8,65,0.00,CLR,,0.00,WeatherDisplay:10.37,2013-04-16 11:36:00,
2013-04-16 07:38:00,48.4,37.2,28.97,NNE,22,6.0,6.0,65,0.00,CLR,,0.00,WeatherDisplay:10.37,2013-04-16 11:38:00,
2013-04-16 07:40:00,48.4,37.2,28.97,NNW,338,6.9,6.9,65,0.00,CLR,,0.00,WeatherDisplay:10.37,2013-04-16 11:40:00,
2013-04-16 07:41:00,48.4,37.2,28.97,NNW,338,2.3,2.3,65,0.00,CLR,,0.00,WeatherDisplay:10.37,2013-04-16 11:41:00,
2013-04-16 07:42:00,48.4,37.2,28.97,North,0,2.3,2.3,65,0.00,CLR,,0.00,WeatherDisplay:10.37,2013-04-16 11:42:00,
2013-04-16 07:43:00,48.4,37.2,28.97,WNW,292,2.3,0.0,65,0.00,CLR,,0.00,WeatherDisplay:10.37,2013-04-16 11:43:00,
2013-04-16 07:45:00,48.4,37.2,28.97,NW,315,3.5,3.5,65,0.00,CLR,,0.00,WeatherDisplay:10.37,2013-04-16 11:45:00,
2013-04-16 07:46:00,48.4,37.2,28.97,NW,315,3.5,3.5,65,0.00,CLR,,0.00,WeatherDisplay:10.37,2013-04-16 11:46:00,
2013-04-16 07:47:00,48.4,37.2,28.97,NNW,338,4.9,4.9,65,0.00,CLR,,0.00,WeatherDisplay:10.37,2013-04-16 11:47:00,
2013-04-16 07:48:00,48.2,37.0,28.97,NNW,338,4.6,4.6,65,0.00,CLR,,0.00,WeatherDisplay:10.37,2013-04-16 11:48:00,
2013-04-16 07:50:00,48.2,37.0,28.97,West,270,3.5,3.5,65,0.00,CLR,,0.00,WeatherDisplay:10.37,2013-04-16 11:50:00,
2013-04-16 07:51:00,48.2,37.0,28.97,WNW,292,2.3,0.0,65,0.00,CLR,,0.00,WeatherDisplay:10.37,2013-04-16 11:51:00,
2013-04-16 07:53:00,48.4,37.2,28.97,NNE,22,2.4,0.0,65,0.00,CLR,,0.00,WeatherDisplay:10.37,2013-04-16 11:53:00,
2013-04-16 07:54:00,48.4,37.2,28.97,NNE,22,2.6,2.6,65,0.00,CLR,,0.00,WeatherDisplay:10.37,2013-04-16 11:54:00,
2013-04-16 07:56:00,48.2,37.0,28.97,NNW,338,5.8,5.8,65,0.00,CLR,,0.00,WeatherDisplay:10.37,2013-04-16 11:56:00,
2013-04-16 07:58:00,48.2,37.0,28.97,WNW,292,0.0,1.6,65,0.00,CLR,,0.00,WeatherDisplay:10.37,2013-04-16 11:58:00,
2013-04-16 07:59:00,48.2,37.0,28.97,NNW,338,3.5,3.5,65,0.00,CLR,,0.00,WeatherDisplay:10.37,2013-04-16 11:59:00,
2013-04-16 08:01:00,48.2,37.0,28.97,NNW,338,4.0,0.0,65,0.00,CLR,,0.00,WeatherDisplay:10.37,2013-04-16 12:01:00,
2013-04-16 08:02:00,48.2,37.0,28.97,North,0,4.6,4.6,65,0.00,CLR,,0.00,WeatherDisplay:10.37,2013-04-16 12:02:00,
2013-04-16 08:03:00,48.2,37.0,28.97,NNW,338,3.6,3.6,65,0.00,CLR,,0.00,WeatherDisplay:10.37,2013-04-16 12:03:00,
2013-04-16 08:04:00,48.2,37.0,28.97,North,0,8.1,8.1,65,0.00,CLR,,0.00,WeatherDisplay:10.37,2013-04-16 12:04:00,
2013-04-16 08:06:00,48.2,37.0,28.97,NNW,338,8.1,8.1,65,0.00,CLR,,0.00,WeatherDisplay:10.37,2013-04-16 12:06:00,
2013-04-16 08:07:00,48.2,37.0,28.97,NNE,22,4.6,4.6,65,0.00,CLR,,0.00,WeatherDisplay:10.37,2013-04-16 12:07:00,
2013-04-16 08:08:00,48.0,36.8,28.97,NNW,338,4.6,4.6,65,0.00,CLR,,0.00,WeatherDisplay:10.37,2013-04-16 12:08:00,
2013-04-16 08:10:00,48.0,36.8,28.97,NNE,22,6.9,6.9,65,0.00,CLR,,0.00,WeatherDisplay:10.37,2013-04-16 12:10:00,
2013-04-16 08:11:00,48.0,36.8,28.97,NNW,338,5.9,5.9,65,0.00,CLR,,0.00,WeatherDisplay:10.37,2013-04-16 12:11:00,
2013-04-16 08:12:00,48.0,36.8,28.97,NNW,338,5.8,5.8,65,0.00,CLR,,0.00,WeatherDisplay:10.37,2013-04-16 12:12:00,
2013-04-16 08:13:00,47.8,36.6,28.97,NNW,338,5.9,5.9,65,0.00,CLR,,0.00,WeatherDisplay:10.37,2013-04-16 12:13:00,
2013-04-16 08:15:00,47.8,36.6,28.97,NW,315,4.3,0.0,65,0.00,CLR,,0.00,WeatherDisplay:10.37,2013-04-16 12:15:00,
2013-04-16 08:17:00,47.8,36.6,28.97,NNW,338,2.3,0.0,65,0.00,CLR,,0.00,WeatherDisplay:10.37,2013-04-16 12:17:00,
2013-04-16 08:18:00,47.8,36.6,29.00,NNW,338,4.6,4.6,65,0.00,CLR,,0.00,WeatherDisplay:10.37,2013-04-16 12:18:00,
2013-04-16 08:20:00,47.8,36.6,29.00,North,0,9.2,9.2,65,0.00,CLR,,0.00,WeatherDisplay:10.37,2013-04-16 12:20:00,
2013-04-16 08:21:00,47.8,36.6,29.00,NNE,22,9.2,9.2,65,0.00,CLR,,0.00,WeatherDisplay:10.37,2013-04-16 12:21:00,
2013-04-16 08:22:00,47.8,36.6,29.00,North,0,8.1,8.1,65,0.00,CLR,,0.00,WeatherDisplay:10.37,2013-04-16 12:22:00,
2013-04-16 08:23:00,47.8,36.6,29.00,North,0,7.1,7.1,65,0.00,CLR,,0.00,WeatherDisplay:10.37,2013-04-16 12:23:00,
2013-04-16 08:24:00,47.8,36.6,29.00,NNW,338,6.9,6.9,65,0.00,CLR,,0.00,WeatherDisplay:10.37,2013-04-16 12:24:00,
2013-04-16 08:25:00,47.8,37.0,29.00,NNW,338,5.8,5.8,66,0.00,CLR,,0.00,WeatherDisplay:10.37,2013-04-16 12:25:00,
2013-04-16 08:26:00,47.8,37.0,29.00,NNW,338,5.8,5.8,66,0.00,CLR,,0.00,WeatherDisplay:10.37,2013-04-16 12:26:00,
2013-04-16 08:28:00,47.8,37.0,29.00,NW,315,4.6,4.6,66,0.00,CLR,,0.00,WeatherDisplay:10.37,2013-04-16 12:28:00,
2013-04-16 08:29:00,47.8,37.0,29.00,NNW,338,4.6,4.6,66,0.00,CLR,,0.00,WeatherDisplay:10.37,2013-04-16 12:29:00,
2013-04-16 08:31:00,47.7,36.9,29.00,WNW,292,6.9,6.9,66,0.00,CLR,,0.00,WeatherDisplay:10.37,2013-04-16 12:31:00,
2013-04-16 08:32:00,47.7,36.9,29.00,NNW,338,3.5,3.6,66,0.00,CLR,,0.00,WeatherDisplay:10.37,2013-04-16 12:32:00,
2013-04-16 08:33:00,47.7,36.9,29.00,NNW,338,5.8,5.8,66,0.00,CLR,,0.00,WeatherDisplay:10.37,2013-04-16 12:33:00,
2013-04-16 08:34:00,47.7,36.9,29.00,NNW,338,4.6,4.6,66,0.00,CLR,,0.00,WeatherDisplay:10.37,2013-04-16 12:34:00,
2013-04-16 08:36:00,47.7,36.9,29.00,NNW,338,4.9,4.9,66,0.00,CLR,,0.00,WeatherDisplay:10.37,2013-04-16 12:36:00,
2013-04-16 08:37:00,47.7,36.9,29.00,NNW,338,5.8,5.8,66,0.00,CLR,,0.00,WeatherDisplay:10.37,2013-04-16 12:37:00,
2013-04-16 08:38:00,47.7,36.9,29.00,NNW,338,3.5,3.5,66,0.00,CLR,,0.00,WeatherDisplay:10.37,2013-04-16 12:38:00,
2013-04-16 08:39:00,47.7,37.2,29.00,NNW,338,5.9,0.0,67,0.00,CLR,,0.00,WeatherDisplay:10.37,2013-04-16 12:39:00,
2013-04-16 08:41:00,47.7,37.2,29.00,NW,315,9.2,9.2,67,0.00,CLR,,0.00,WeatherDisplay:10.37,2013-04-16 12:41:00,
2013-04-16 08:42:00,47.7,37.2,29.00,NW,315,6.9,6.9,67,0.00,CLR,,0.00,WeatherDisplay:10.37,2013-04-16 12:42:00,
2013-04-16 08:43:00,47.7,37.2,29.00,NW,315,5.8,5.8,67,0.00,CLR,,0.00,WeatherDisplay:10.37,2013-04-16 12:43:00,
2013-04-16 08:44:00,47.7,37.2,29.00,NNW,338,4.7,4.7,67,0.00,CLR,,0.00,WeatherDisplay:10.37,2013-04-16 12:44:00,
2013-04-16 08:46:00,47.5,37.1,29.00,North,0,6.9,6.9,67,0.00,CLR,,0.00,WeatherDisplay:10.37,2013-04-16 12:46:00,
2013-04-16 08:47:00,47.5,37.1,29.00,NNW,338,8.1,8.1,67,0.00,CLR,,0.00,WeatherDisplay:10.37,2013-04-16 12:47:00,
2013-04-16 08:48:00,47.5,37.1,29.00,NW,315,5.8,5.8,67,0.00,CLR,,0.00,WeatherDisplay:10.37,2013-04-16 12:48:00,
2013-04-16 08:49:00,47.5,37.1,29.00,NNW,338,6.4,6.4,67,0.00,CLR,,0.00,WeatherDisplay:10.37,2013-04-16 12:49:00,
2013-04-16 08:52:00,47.5,37.1,29.00,NNE,22,9.8,9.8,67,0.00,CLR,,0.00,WeatherDisplay:10.37,2013-04-16 12:52:00,
2013-04-16 08:53:00,47.5,37.4,29.00,WNW,292,10.4,10.4,68,0.00,CLR,,0.00,WeatherDisplay:10.37,2013-04-16 12:53:00,
2013-04-16 08:54:00,47.5,37.4,29.00,NNW,338,10.4,10.4,68,0.00,CLR,,0.00,WeatherDisplay:10.37,2013-04-16 12:54:00,
2013-04-16 08:55:00,47.5,37.4,29.00,NNE,22,5.8,5.8,68,0.00,CLR,,0.00,WeatherDisplay:10.37,2013-04-16 12:55:00,
2013-04-16 08:57:00,47.7,37.6,29.00,NNE,22,8.1,8.1,68,0.00,CLR,,0.00,WeatherDisplay:10.37,2013-04-16 12:57:00,
2013-04-16 08:58:00,47.7,37.6,29.00,North,0,8.1,8.1,68,0.00,CLR,,0.00,WeatherDisplay:10.37,2013-04-16 12:58:00,
2013-04-16 08:59:00,47.7,37.6,29.00,North,0,8.1,8.1,68,0.00,CLR,,0.00,WeatherDisplay:10.37,2013-04-16 12:59:00,
2013-04-16 09:00:00,47.7,37.6,29.00,NNW,338,4.9,4.9,68,0.00,CLR,,0.00,WeatherDisplay:10.37,2013-04-16 13:00:00,
2013-04-16 09:02:00,47.7,37.6,29.00,NNW,338,8.1,8.1,68,0.00,CLR,,0.00,WeatherDisplay:10.37,2013-04-16 13:02:00,
2013-04-16 09:03:00,47.7,37.6,29.00,North,0,9.2,9.2,68,0.00,CLR,,0.00,WeatherDisplay:10.37,2013-04-16 13:03:00,
2013-04-16 09:04:00,47.7,37.6,29.00,NNE,22,9.2,9.2,68,0.00,CLR,,0.00,WeatherDisplay:10.37,2013-04-16 13:04:00,
2013-04-16 09:06:00,47.7,37.6,29.00,NNW,338,5.8,5.8,68,0.00,CLR,,0.00,WeatherDisplay:10.37,2013-04-16 13:06:00,
2013-04-16 09:07:00,47.7,37.6,29.00,NNW,338,4.6,4.6,68,0.00,CLR,,0.00,WeatherDisplay:10.37,2013-04-16 13:07:00,
2013-04-16 09:08:00,47.7,37.2,29.00,NNW,338,6.9,6.9,67,0.00,CLR,,0.00,WeatherDisplay:10.37,2013-04-16 13:08:00,
2013-04-16 09:09:00,47.7,37.2,29.00,WNW,292,6.9,6.9,67,0.00,CLR,,0.00,WeatherDisplay:10.37,2013-04-16 13:09:00,
2013-04-16 09:11:00,47.5,37.1,29.00,NNE,22,8.1,8.1,67,0.00,CLR,,0.00,WeatherDisplay:10.37,2013-04-16 13:11:00,
2013-04-16 09:13:00,47.5,37.1,29.00,NNE,22,10.4,10.4,67,0.00,CLR,,0.00,WeatherDisplay:10.37,2013-04-16 13:13:00,
2013-04-16 09:14:00,47.5,37.1,29.00,NNW,338,10.4,10.4,67,0.00,CLR,,0.00,WeatherDisplay:10.37,2013-04-16 13:14:00,
2013-04-16 09:17:00,47.5,37.1,29.00,North,0,8.1,8.1,67,0.00,CLR,,0.00,WeatherDisplay:10.37,2013-04-16 13:17:00,
2013-04-16 09:18:00,47.5,37.1,29.00,NNW,338,9.2,9.2,67,0.00,CLR,,0.00,WeatherDisplay:10.37,2013-04-16 13:18:00,
2013-04-16 09:19:00,47.5,37.1,29.00,NNW,338,8.1,8.1,67,0.00,CLR,,0.00,WeatherDisplay:10.37,2013-04-16 13:19:00,
2013-04-16 09:22:00,47.3,36.9,29.00,NNE,22,8.1,8.1,67,0.00,CLR,,0.00,WeatherDisplay:10.37,2013-04-16 13:22:00,
2013-04-16 09:23:00,47.3,36.9,29.00,NNE,22,9.2,9.2,67,0.00,CLR,,0.00,WeatherDisplay:10.37,2013-04-16 13:23:00,
2013-04-16 09:24:00,47.5,37.1,29.00,NNE,22,5.8,5.8,67,0.00,CLR,,0.00,WeatherDisplay:10.37,2013-04-16 13:24:00,
2013-04-16 09:25:00,47.3,36.9,29.00,NNE,22,5.8,5.8,67,0.00,CLR,,0.00,WeatherDisplay:10.37,2013-04-16 13:25:00,
2013-04-16 09:27:00,47.5,37.1,29.00,North,0,6.9,6.9,67,0.00,CLR,,0.00,WeatherDisplay:10.37,2013-04-16 13:27:00,
2013-04-16 09:28:00,47.5,37.1,29.00,NNW,338,6.7,6.7,67,0.00,CLR,,0.00,WeatherDisplay:10.37,2013-04-16 13:28:00,
2013-04-16 09:29:00,47.5,37.1,29.00,NW,315,6.9,6.9,67,0.00,CLR,,0.00,WeatherDisplay:10.37,2013-04-16 13:29:00,
2013-04-16 09:30:00,47.3,36.9,29.00,WNW,292,6.9,6.9,67,0.00,CLR,,0.00,WeatherDisplay:10.37,2013-04-16 13:30:00,
2013-04-16 09:33:00,47.1,36.7,29.00,NW,315,5.8,5.8,67,0.00,CLR,,0.00,WeatherDisplay:10.37,2013-04-16 13:33:00,
2013-04-16 09:34:00,47.1,36.7,29.00,North,0,4.9,5.9,67,0.00,CLR,,0.00,WeatherDisplay:10.37,2013-04-16 13:34:00,
2013-04-16 09:35:00,47.1,36.7,29.00,NNW,338,5.8,5.8,67,0.00,CLR,,0.00,WeatherDisplay:10.37,2013-04-16 13:35:00,
2013-04-16 09:38:00,47.1,36.7,29.00,WNW,292,8.1,8.1,67,0.00,CLR,,0.00,WeatherDisplay:10.37,2013-04-16 13:38:00,
2013-04-16 09:39:00,47.1,36.7,29.00,NNW,338,8.1,8.1,67,0.00,CLR,,0.00,WeatherDisplay:10.37,2013-04-16 13:39:00,
2013-04-16 09:40:00,47.1,36.7,29.00,NNW,332,3.0,9.0,67,0.00,CLR,,0.00,WeatherDisplay:10.37,2013-04-16 13:40:00,
2013-04-16 09:43:00,47.1,36.7,29.00,NNE,22,6.9,6.9,67,0.00,CLR,,0.00,WeatherDisplay:10.37,2013-04-16 13:43:00,
2013-04-16 09:44:00,47.3,36.9,29.00,NNW,338,4.6,4.6,67,0.00,CLR,,0.00,WeatherDisplay:10.37,2013-04-16 13:44:00,
2013-04-16 09:45:00,47.1,36.7,29.00,NNW,338,4.6,4.6,67,0.00,CLR,,0.00,WeatherDisplay:10.37,2013-04-16 13:45:00,
2013-04-16 09:48:00,47.5,37.1,29.00,NNE,22,4.7,0.0,67,0.00,CLR,,0.00,WeatherDisplay:10.37,2013-04-16 13:48:00,
2013-04-16 09:49:00,47.5,37.1,29.00,North,0,5.9,5.9,67,0.00,CLR,,0.00,WeatherDisplay:10.37,2013-04-16 13:49:00,
2013-04-16 09:50:00,47.5,37.1,29.00,NNE,22,8.1,8.1,67,0.00,CLR,,0.00,WeatherDisplay:10.37,2013-04-16 13:50:00,
2013-04-16 09:53:00,47.5,36.7,29.00,NW,315,4.6,4.6,66,0.00,CLR,,0.00,WeatherDisplay:10.37,2013-04-16 13:53:00,
2013-04-16 09:54:00,47.5,36.7,29.00,NNW,338,4.6,4.6,66,0.00,CLR,,0.00,WeatherDisplay:10.37,2013-04-16 13:54:00,
2013-04-16 09:55:00,47.5,36.7,29.00,NNW,338,4.6,4.6,66,0.00,CLR,,0.00,WeatherDisplay:10.37,2013-04-16 13:55:00,
2013-04-16 09:58:00,47.5,36.3,29.00,NNE,22,10.0,10.0,65,0.00,CLR,,0.00,WeatherDisplay:10.37,2013-04-16 13:58:00,
2013-04-16 09:59:00,47.5,36.3,29.00,NNW,338,10.4,10.4,65,0.00,CLR,,0.00,WeatherDisplay:10.37,2013-04-16 13:59:00,
2013-04-16 10:00:00,47.5,36.3,29.00,NNE,22,5.8,5.8,65,0.00,CLR,,0.00,WeatherDisplay:10.37,2013-04-16 14:00:00,
2013-04-16 10:04:00,47.5,35.9,29.00,NNW,338,5.8,5.8,64,0.00,CLR,,0.00,WeatherDisplay:10.37,2013-04-16 14:04:00,
2013-04-16 10:05:00,47.5,35.9,29.00,NNW,338,4.6,4.6,64,0.00,CLR,,0.00,WeatherDisplay:10.37,2013-04-16 14:05:00,
2013-04-16 10:06:00,47.5,35.9,29.00,NNW,338,4.6,4.6,64,0.00,CLR,,0.00,WeatherDisplay:10.37,2013-04-16 14:06:00,
2013-04-16 10:09:00,47.5,35.1,29.00,NW,315,5.8,5.8,62,0.00,CLR,,0.00,WeatherDisplay:10.37,2013-04-16 14:09:00,
2013-04-16 10:10:00,47.7,35.3,29.00,WSW,248,2.3,2.3,62,0.00,CLR,,0.00,WeatherDisplay:10.37,2013-04-16 14:10:00,
2013-04-16 10:11:00,47.7,35.3,29.00,SSW,202,1.1,0.0,62,0.00,CLR,,0.00,WeatherDisplay:10.37,2013-04-16 14:11:00,
2013-04-16 10:14:00,47.8,35.0,29.00,WSW,248,3.8,3.8,61,0.00,CLR,,0.00,WeatherDisplay:10.37,2013-04-16 14:14:00,
2013-04-16 10:15:00,47.7,34.4,29.00,NNE,22,7.4,7.4,60,0.00,CLR,,0.00,WeatherDisplay:10.37,2013-04-16 14:15:00,
2013-04-16 10:16:00,47.8,34.6,29.00,North,0,6.9,6.9,60,0.00,CLR,,0.00,WeatherDisplay:10.37,2013-04-16 14:16:00,
2013-04-16 10:19:00,47.8,34.2,29.00,NNW,338,10.4,10.4,59,0.00,CLR,,0.00,WeatherDisplay:10.37,2013-04-16 14:19:00,
2013-04-16 10:20:00,47.8,33.8,29.00,NNW,338,5.8,5.8,58,0.00,CLR,,0.00,WeatherDisplay:10.37,2013-04-16 14:20:00,
2013-04-16 10:21:00,47.8,33.8,29.00,NNW,338,4.6,4.6,58,0.00,CLR,,0.00,WeatherDisplay:10.37,2013-04-16 14:21:00,
2013-04-16 10:22:00,47.8,33.3,29.00,NNE,22,8.1,8.1,57,0.00,CLR,,0.00,WeatherDisplay:10.37,2013-04-16 14:22:00,
2013-04-16 10:24:00,47.7,32.7,29.00,NW,315,5.8,5.8,56,0.00,CLR,,0.00,WeatherDisplay:10.37,2013-04-16 14:24:00,
2013-04-16 10:26:00,47.7,32.3,29.00,WSW,248,4.6,4.6,55,0.00,CLR,,0.00,WeatherDisplay:10.37,2013-04-16 14:26:00,
2013-04-16 10:27:00,47.8,32.0,29.00,WNW,292,4.6,4.6,54,0.00,CLR,,0.00,WeatherDisplay:10.37,2013-04-16 14:27:00,
2013-04-16 10:28:00,47.8,32.0,29.00,West,270,3.8,3.8,54,0.00,CLR,,0.00,WeatherDisplay:10.37,2013-04-16 14:28:00,
2013-04-16 10:30:00,47.8,32.0,29.00,NNE,22,5.8,5.8,54,0.00,CLR,,0.00,WeatherDisplay:10.37,2013-04-16 14:30:00,
2013-04-16 10:32:00,48.2,32.3,29.00,North,0,8.1,8.1,54,0.00,CLR,,0.00,WeatherDisplay:10.37,2013-04-16 14:32:00,
2013-04-16 10:33:00,48.2,32.3,29.03,NNE,22,6.4,6.4,54,0.00,CLR,,0.00,WeatherDisplay:10.37,2013-04-16 14:33:00,
2013-04-16 10:35:00,48.6,32.7,29.03,NNW,338,8.1,8.1,54,0.00,CLR,,0.00,WeatherDisplay:10.37,2013-04-16 14:35:00,
2013-04-16 10:37:00,48.6,32.2,29.03,NNW,338,5.8,5.8,53,0.00,CLR,,0.00,WeatherDisplay:10.37,2013-04-16 14:37:00,
2013-04-16 10:39:00,48.4,32.0,29.03,NNE,22,6.9,6.9,53,0.00,CLR,,0.00,WeatherDisplay:10.37,2013-04-16 14:39:00,
2013-04-16 10:40:00,48.6,31.7,29.03,North,0,5.8,5.8,52,0.00,CLR,,0.00,WeatherDisplay:10.37,2013-04-16 14:40:00,
2013-04-16 10:42:00,48.7,31.9,29.03,NNE,22,8.1,8.1,52,0.00,CLR,,0.00,WeatherDisplay:10.37,2013-04-16 14:42:00,
2013-04-16 10:44:00,48.6,31.2,29.03,WNW,292,8.1,8.1,51,0.00,CLR,,0.00,WeatherDisplay:10.37,2013-04-16 14:44:00,
2013-04-16 10:45:00,48.4,31.1,29.03,NNW,338,5.8,5.8,51,0.00,CLR,,0.00,WeatherDisplay:10.37,2013-04-16 14:45:00,
2013-04-16 10:47:00,48.4,31.1,29.03,NNE,22,9.2,9.2,51,0.00,CLR,,0.00,WeatherDisplay:10.37,2013-04-16 14:47:00,
2013-04-16 10:49:00,48.6,30.7,29.03,NW,315,7.4,7.4,50,0.00,CLR,,0.00,WeatherDisplay:10.37,2013-04-16 14:49:00,
2013-04-16 10:50:00,48.6,30.7,29.06,WNW,292,6.9,6.9,50,0.00,CLR,,0.00,WeatherDisplay:10.37,2013-04-16 14:50:00,
2013-04-16 10:52:00,48.4,30.1,29.06,NNE,22,5.8,5.8,49,0.00,CLR,,0.00,WeatherDisplay:10.37,2013-04-16 14:52:00,
2013-04-16 10:54:00,48.7,30.4,29.06,NNW,338,5.8,5.8,49,0.00,CLR,,0.00,WeatherDisplay:10.37,2013-04-16 14:54:00,
2013-04-16 10:56:00,48.7,29.9,29.06,NNE,22,9.2,9.2,48,0.00,CLR,,0.00,WeatherDisplay:10.37,2013-04-16 14:56:00,
2013-04-16 10:57:00,48.7,29.9,29.06,WNW,292,8.1,8.1,48,0.00,CLR,,0.00,WeatherDisplay:10.37,2013-04-16 14:57:00,
2013-04-16 10:58:00,48.7,29.9,29.06,WNW,292,8.1,8.1,48,0.00,CLR,,0.00,WeatherDisplay:10.37,2013-04-16 14:58:00,
2013-04-16 11:00:00,48.7,29.9,29.06,West,270,2.3,2.3,48,0.00,CLR,,0.00,WeatherDisplay:10.37,2013-04-16 15:00:00,
2013-04-16 11:02:00,49.1,30.2,29.06,NNW,338,3.5,3.5,48,0.00,CLR,,0.00,WeatherDisplay:10.37,2013-04-16 15:02:00,
2013-04-16 11:03:00,49.1,30.2,29.06,NNW,338,5.6,5.6,48,0.00,CLR,,0.00,WeatherDisplay:10.37,2013-04-16 15:03:00,
2013-04-16 11:04:00,49.3,30.4,29.03,NNW,338,4.6,4.6,48,0.00,CLR,,0.00,WeatherDisplay:10.37,2013-04-16 15:04:00,
2013-04-16 11:05:00,49.5,30.6,29.03,North,0,5.6,5.6,48,0.00,CLR,,0.00,WeatherDisplay:10.37,2013-04-16 15:05:00,
2013-04-16 11:07:00,49.6,30.7,29.03,NNE,22,4.6,4.6,48,0.00,CLR,,0.00,WeatherDisplay:10.37,2013-04-16 15:07:00,
2013-04-16 11:08:00,49.8,30.9,29.03,NNE,22,8.1,8.1,48,0.00,CLR,,0.00,WeatherDisplay:10.37,2013-04-16 15:08:00,
2013-04-16 11:09:00,50.0,31.1,29.03,NNW,338,8.1,8.1,48,0.00,CLR,,0.00,WeatherDisplay:10.37,2013-04-16 15:09:00,
2013-04-16 11:11:00,50.0,30.5,29.03,WNW,292,9.2,9.2,47,0.00,CLR,,0.00,WeatherDisplay:10.37,2013-04-16 15:11:00,
2013-04-16 11:12:00,49.8,30.4,29.03,WNW,292,3.5,3.5,47,0.00,CLR,,0.00,WeatherDisplay:10.37,2013-04-16 15:12:00,
2013-04-16 11:13:00,49.6,29.7,29.03,NNW,338,2.3,2.3,46,0.00,CLR,,0.00,WeatherDisplay:10.37,2013-04-16 15:13:00,
2013-04-16 11:14:00,49.6,29.7,29.03,SSW,202,3.6,3.6,46,0.00,CLR,,0.00,WeatherDisplay:10.37,2013-04-16 15:14:00,
2013-04-16 11:16:00,49.6,30.2,29.03,NNW,338,5.4,5.4,47,0.00,CLR,,0.00,WeatherDisplay:10.37,2013-04-16 15:16:00,
2013-04-16 11:17:00,49.6,29.7,29.03,NNE,22,5.8,5.8,46,0.00,CLR,,0.00,WeatherDisplay:10.37,2013-04-16 15:17:00,
2013-04-16 11:18:00,49.6,29.7,29.03,NNE,22,5.8,5.8,46,0.00,CLR,,0.00,WeatherDisplay:10.37,2013-04-16 15:18:00,
2013-04-16 11:20:00,49.5,29.6,29.06,NW,306,3.0,6.0,46,0.00,CLR,,0.00,WeatherDisplay:10.37,2013-04-16 15:20:00,
2013-04-16 11:21:00,49.5,29.5,29.06,NNE,22,3.5,0.0,46,0.00,CLR,,0.00,WeatherDisplay:10.37,2013-04-16 15:21:00,
2013-04-16 11:22:00,49.6,29.7,29.06,NW,315,3.5,3.8,46,0.00,CLR,,0.00,WeatherDisplay:10.37,2013-04-16 15:22:00,
2013-04-16 11:23:00,49.6,29.7,29.06,NNW,338,3.5,3.5,46,0.00,CLR,,0.00,WeatherDisplay:10.37,2013-04-16 15:23:00,
2013-04-16 11:24:00,49.6,29.7,29.06,NNW,338,5.8,5.8,46,0.00,CLR,,0.00,WeatherDisplay:10.37,2013-04-16 15:24:00,
2013-04-16 11:25:00,49.8,29.8,29.06,NNW,338,5.8,5.8,46,0.00,CLR,,0.00,WeatherDisplay:10.37,2013-04-16 15:25:00,
2013-04-16 11:26:00,50.0,30.0,29.06,North,0,6.0,6.0,46,0.00,CLR,,0.00,WeatherDisplay:10.37,2013-04-16 15:26:00,
2013-04-16 11:27:00,50.0,29.5,29.06,North,0,6.2,6.2,45,0.00,CLR,,0.00,WeatherDisplay:10.37,2013-04-16 15:27:00,
2013-04-16 11:28:00,50.2,29.6,29.06,North,0,9.2,9.2,45,0.00,CLR,,0.00,WeatherDisplay:10.37,2013-04-16 15:28:00,
2013-04-16 11:29:00,50.0,29.5,29.06,West,270,5.8,5.8,45,0.00,CLR,,0.00,WeatherDisplay:10.37,2013-04-16 15:29:00,
2013-04-16 11:30:00,49.8,28.8,29.06,WNW,292,3.5,3.8,44,0.00,CLR,,0.00,WeatherDisplay:10.37,2013-04-16 15:30:00,
2013-04-16 11:32:00,49.8,27.6,29.06,WNW,292,2.4,2.4,42,0.00,CLR,,0.00,WeatherDisplay:10.37,2013-04-16 15:32:00,
2013-04-16 11:33:00,50.2,27.9,29.06,NW,315,2.6,2.6,42,0.00,CLR,,0.00,WeatherDisplay:10.37,2013-04-16 15:33:00,
2013-04-16 11:34:00,50.0,27.8,29.06,NNE,22,5.4,5.4,42,0.00,CLR,,0.00,WeatherDisplay:10.37,2013-04-16 15:34:00,
2013-04-16 11:35:00,50.0,27.8,29.06,North,0,6.9,6.9,42,0.00,CLR,,0.00,WeatherDisplay:10.37,2013-04-16 15:35:00,
2013-04-16 11:37:00,50.2,27.4,29.06,NNE,22,11.5,11.5,41,0.00,CLR,,0.00,WeatherDisplay:10.37,2013-04-16 15:37:00,
2013-04-16 11:38:00,50.2,27.4,29.06,NNW,338,11.5,11.5,41,0.00,CLR,,0.00,WeatherDisplay:10.37,2013-04-16 15:38:00,
2013-04-16 11:39:00,50.2,27.4,29.06,WSW,248,9.2,9.2,41,0.00,CLR,,0.00,WeatherDisplay:10.37,2013-04-16 15:39:00,
2013-04-16 11:40:00,50.2,27.4,29.06,NNW,338,4.6,4.6,41,0.00,CLR,,0.00,WeatherDisplay:10.37,2013-04-16 15:40:00,
2013-04-16 11:42:00,50.2,26.8,29.06,NNW,338,5.8,5.8,40,0.00,CLR,,0.00,WeatherDisplay:10.37,2013-04-16 15:42:00,
2013-04-16 11:43:00,50.2,26.1,29.06,SSW,202,5.8,5.8,39,0.00,CLR,,0.00,WeatherDisplay:10.37,2013-04-16 15:43:00,
2013-04-16 11:45:00,50.2,26.1,29.06,North,0,4.6,4.6,39,0.00,CLR,,0.00,WeatherDisplay:10.37,2013-04-16 15:45:00,
2013-04-16 11:48:00,50.2,26.1,29.06,NNW,338,8.1,8.1,39,0.00,CLR,,0.00,WeatherDisplay:10.37,2013-04-16 15:48:00,
2013-04-16 11:50:00,50.4,26.3,29.06,WSW,248,8.1,8.1,39,0.00,CLR,,0.00,WeatherDisplay:10.37,2013-04-16 15:50:00,
2013-04-16 11:51:00,50.4,26.3,29.06,SSW,202,8.1,8.1,39,0.00,CLR,,0.00,WeatherDisplay:10.37,2013-04-16 15:51:00,
2013-04-16 11:53:00,50.7,26.6,29.06,NNW,338,8.1,8.1,39,0.00,CLR,,0.00,WeatherDisplay:10.37,2013-04-16 15:53:00,
2013-04-16 11:54:00,50.7,26.6,29.06,NNE,22,4.6,4.6,39,0.00,CLR,,0.00,WeatherDisplay:10.37,2013-04-16 15:54:00,
2013-04-16 11:56:00,50.7,26.6,29.06,NNW,338,5.8,5.8,39,0.00,CLR,,0.00,WeatherDisplay:10.37,2013-04-16 15:56:00,
2013-04-16 11:58:00,50.4,25.7,29.06,WNW,292,3.5,3.6,38,0.00,CLR,,0.00,WeatherDisplay:10.37,2013-04-16 15:58:00,
2013-04-16 11:59:00,50.4,25.7,29.06,WNW,292,3.5,3.6,38,0.00,CLR,,0.00,WeatherDisplay:10.37,2013-04-16 15:59:00,
2013-04-16 12:01:00,50.7,26.6,29.06,North,0,7.1,7.1,39,0.00,CLR,,0.00,WeatherDisplay:10.37,2013-04-16 16:01:00,
2013-04-16 12:04:00,50.7,26.0,29.06,NNW,338,4.6,4.6,38,0.00,CLR,,0.00,WeatherDisplay:10.37,2013-04-16 16:04:00,
2013-04-16 12:06:00,50.7,26.0,29.06,NW,315,6.9,6.9,38,0.00,CLR,,0.00,WeatherDisplay:10.37,2013-04-16 16:06:00,
2013-04-16 12:07:00,50.7,26.0,29.06,NW,315,6.9,6.9,38,0.00,CLR,,0.00,WeatherDisplay:10.37,2013-04-16 16:07:00,
2013-04-16 12:09:00,50.5,25.8,29.06,NW,315,6.9,6.9,38,0.00,CLR,,0.00,WeatherDisplay:10.37,2013-04-16 16:09:00,
2013-04-16 12:12:00,50.9,26.2,29.06,North,0,8.1,8.1,38,0.00,CLR,,0.00,WeatherDisplay:10.37,2013-04-16 16:12:00,
2013-04-16 12:14:00,51.3,27.1,29.06,WNW,292,8.1,8.1,39,0.00,CLR,,0.00,WeatherDisplay:10.37,2013-04-16 16:14:00,
2013-04-16 12:15:00,51.3,26.5,29.06,NNW,338,6.2,6.2,38,0.00,CLR,,0.00,WeatherDisplay:10.37,2013-04-16 16:15:00,
2013-04-16 12:17:00,51.4,26.6,29.06,North,0,10.4,10.4,38,0.00,CLR,,0.00,WeatherDisplay:10.37,2013-04-16 16:17:00,
2013-04-16 12:19:00,51.6,26.8,29.06,North,0,10.4,10.4,38,0.00,CLR,,0.00,WeatherDisplay:10.37,2013-04-16 16:19:00,
2013-04-16 12:20:00,51.8,27.0,29.06,NNE,22,8.1,8.1,38,0.00,CLR,,0.00,WeatherDisplay:10.37,2013-04-16 16:20:00,
2013-04-16 12:22:00,52.0,27.1,29.06,North,0,10.4,10.4,38,0.00,CLR,,0.00,WeatherDisplay:10.37,2013-04-16 16:22:00,
2013-04-16 12:24:00,51.6,26.8,29.06,NNE,22,6.9,6.9,38,0.00,CLR,,0.00,WeatherDisplay:10.37,2013-04-16 16:24:00,
2013-04-16 12:25:00,51.6,26.8,29.06,North,0,12.8,12.8,38,0.00,CLR,,0.00,WeatherDisplay:10.37,2013-04-16 16:25:00,
2013-04-16 12:26:00,51.6,26.8,29.06,North,0,12.7,12.7,38,0.00,CLR,,0.00,WeatherDisplay:10.37,2013-04-16 16:26:00,
2013-04-16 12:27:00,52.3,27.5,29.06,NNE,22,9.2,9.2,38,0.00,CLR,,0.00,WeatherDisplay:10.37,2013-04-16 16:27:00,
2013-04-16 12:29:00,52.0,26.5,29.06,WNW,292,5.8,5.8,37,0.00,CLR,,0.00,WeatherDisplay:10.37,2013-04-16 16:29:00,
2013-04-16 12:30:00,51.6,26.2,29.06,WNW,292,6.9,6.9,37,0.00,CLR,,0.00,WeatherDisplay:10.37,2013-04-16 16:30:00,
2013-04-16 12:31:00,51.6,26.2,29.06,NNE,22,6.9,6.9,37,0.00,CLR,,0.00,WeatherDisplay:10.37,2013-04-16 16:31:00,
2013-04-16 12:32:00,52.0,26.5,29.06,North,0,10.4,10.4,37,0.00,CLR,,0.00,WeatherDisplay:10.37,2013-04-16 16:32:00,
2013-04-16 12:33:00,52.0,26.5,29.06,NNW,338,9.2,9.2,37,0.00,CLR,,0.00,WeatherDisplay:10.37,2013-04-16 16:33:00,
2013-04-16 12:34:00,52.5,27.0,29.09,NNE,22,8.1,8.1,37,0.00,CLR,,0.00,WeatherDisplay:10.37,2013-04-16 16:34:00,
2013-04-16 12:35:00,52.9,27.3,29.09,NNE,22,10.0,10.0,37,0.00,CLR,,0.00,WeatherDisplay:10.37,2013-04-16 16:35:00,
2013-04-16 12:36:00,52.5,27.0,29.09,WNW,292,10.4,10.4,37,0.00,CLR,,0.00,WeatherDisplay:10.37,2013-04-16 16:36:00,
2013-04-16 12:37:00,52.3,26.8,29.09,NNW,338,5.8,5.8,37,0.00,CLR,,0.00,WeatherDisplay:10.37,2013-04-16 16:37:00,
2013-04-16 12:38:00,52.2,26.6,29.09,NNW,338,6.0,0.0,37,0.00,CLR,,0.00,WeatherDisplay:10.37,2013-04-16 16:38:00,
2013-04-16 12:40:00,52.7,27.1,29.09,WSW,248,5.8,5.8,37,0.00,CLR,,0.00,WeatherDisplay:10.37,2013-04-16 16:40:00,
2013-04-16 12:42:00,52.7,26.5,29.09,SSE,158,2.3,2.3,36,0.00,CLR,,0.00,WeatherDisplay:10.37,2013-04-16 16:42:00,
2013-04-16 12:43:00,53.2,26.9,29.09,SSW,202,2.6,2.6,36,0.00,CLR,,0.00,WeatherDisplay:10.37,2013-04-16 16:43:00,
2013-04-16 12:45:00,53.4,27.1,29.09,WNW,293,2.0,3.0,36,0.00,CLR,,0.00,WeatherDisplay:10.37,2013-04-16 16:45:00,
2013-04-16 12:47:00,53.6,27.3,29.09,WNW,292,2.3,0.0,36,0.00,CLR,,0.00,WeatherDisplay:10.37,2013-04-16 16:47:00,
2013-04-16 12:48:00,53.6,27.3,29.06,NNW,338,9.2,9.2,36,0.00,CLR,,0.00,WeatherDisplay:10.37,2013-04-16 16:48:00,
2013-04-16 12:50:00,54.1,27.7,29.06,WSW,248,4.6,4.6,36,0.00,CLR,,0.00,WeatherDisplay:10.37,2013-04-16 16:50:00,
2013-04-16 12:51:00,54.1,27.7,29.06,WSW,248,5.9,5.9,36,0.00,CLR,,0.00,WeatherDisplay:10.37,2013-04-16 16:51:00,
2013-04-16 12:52:00,53.8,24.6,29.06,NW,315,5.8,5.8,32,0.00,CLR,,0.00,WeatherDisplay:10.37,2013-04-16 16:52:00,
2013-04-16 12:53:00,54.0,25.5,29.06,WNW,292,5.8,5.8,33,0.00,CLR,,0.00,WeatherDisplay:10.37,2013-04-16 16:53:00,
2013-04-16 12:54:00,54.3,26.5,29.06,WNW,292,5.8,5.8,34,0.00,CLR,,0.00,WeatherDisplay:10.37,2013-04-16 16:54:00,
2013-04-16 12:55:00,53.8,25.3,29.06,NNW,338,6.0,6.0,33,0.00,CLR,,0.00,WeatherDisplay:10.37,2013-04-16 16:55:00,
2013-04-16 12:57:00,54.1,27.1,29.06,North,0,8.1,8.5,35,0.00,CLR,,0.00,WeatherDisplay:10.37,2013-04-16 16:57:00,
2013-04-16 12:58:00,54.5,26.7,29.06,WSW,248,8.1,8.1,34,0.00,CLR,,0.00,WeatherDisplay:10.37,2013-04-16 16:58:00,
2013-04-16 12:59:00,54.1,26.4,29.06,WSW,248,3.5,3.5,34,0.00,CLR,,0.00,WeatherDisplay:10.37,2013-04-16 16:59:00,
2013-04-16 13:00:00,54.0,26.2,29.06,WNW,292,4.6,4.6,34,0.00,CLR,,0.00,WeatherDisplay:10.37,2013-04-16 17:00:00,
2013-04-16 13:02:00,54.0,26.2,29.06,WSW,248,2.3,2.4,34,0.00,CLR,,0.00,WeatherDisplay:10.37,2013-04-16 17:02:00,
2013-04-16 13:03:00,54.0,26.2,29.06,West,270,3.1,3.1,34,0.00,CLR,,0.00,WeatherDisplay:10.37,2013-04-16 17:03:00,
2013-04-16 13:05:00,54.5,26.0,29.06,NNW,338,7.1,7.1,33,0.00,CLR,,0.00,WeatherDisplay:10.37,2013-04-16 17:05:00,
2013-04-16 13:07:00,54.3,25.1,29.06,NNW,338,6.9,6.9,32,0.00,CLR,,0.00,WeatherDisplay:10.37,2013-04-16 17:07:00,
2013-04-16 13:08:00,53.6,24.4,29.06,North,0,10.0,10.0,32,0.00,CLR,,0.00,WeatherDisplay:10.37,2013-04-16 17:08:00,
2013-04-16 13:10:00,54.0,24.7,29.06,NNW,338,6.9,6.9,32,0.00,CLR,,0.00,WeatherDisplay:10.37,2013-04-16 17:10:00,
2013-04-16 13:11:00,54.3,25.8,29.06,NNW,338,3.5,3.5,33,0.00,CLR,,0.00,WeatherDisplay:10.37,2013-04-16 17:11:00,
2013-04-16 13:12:00,54.3,25.8,29.06,North,0,5.8,5.8,33,0.00,CLR,,0.00,WeatherDisplay:10.37,2013-04-16 17:12:00,
2013-04-16 13:13:00,54.5,26.0,29.06,NNE,22,5.8,5.8,33,0.00,CLR,,0.00,WeatherDisplay:10.37,2013-04-16 17:13:00,
2013-04-16 13:14:00,54.5,25.2,29.06,NNE,22,8.5,8.5,32,0.00,CLR,,0.00,WeatherDisplay:10.37,2013-04-16 17:14:00,
2013-04-16 13:15:00,54.7,25.4,29.06,NNW,338,9.7,9.7,32,0.00,CLR,,0.00,WeatherDisplay:10.37,2013-04-16 17:15:00,
2013-04-16 13:16:00,54.9,24.8,29.06,NNW,338,9.2,9.2,31,0.00,CLR,,0.00,WeatherDisplay:10.37,2013-04-16 17:16:00,
2013-04-16 13:17:00,54.5,23.7,29.06,WNW,292,6.9,6.9,30,0.00,CLR,,0.00,WeatherDisplay:10.37,2013-04-16 17:17:00,
2013-04-16 13:18:00,54.7,23.8,29.06,WSW,248,5.8,5.8,30,0.00,CLR,,0.00,WeatherDisplay:10.37,2013-04-16 17:18:00,
2013-04-16 13:19:00,55.0,23.3,29.06,WSW,248,3.6,3.6,29,0.00,CLR,,0.00,WeatherDisplay:10.37,2013-04-16 17:19:00,
2013-04-16 13:20:00,55.0,23.3,29.06,NNW,338,4.6,4.6,29,0.00,CLR,,0.00,WeatherDisplay:10.37,2013-04-16 17:20:00,
2013-04-16 13:22:00,55.2,23.5,29.06,WNW,292,5.8,5.8,29,0.00,CLR,,0.00,WeatherDisplay:10.37,2013-04-16 17:22:00,
2013-04-16 13:23:00,54.7,23.0,29.06,WNW,292,6.9,6.9,29,0.00,CLR,,0.00,WeatherDisplay:10.37,2013-04-16 17:23:00,
2013-04-16 13:24:00,55.0,23.3,29.06,NW,315,6.2,6.2,29,0.00,CLR,,0.00,WeatherDisplay:10.37,2013-04-16 17:24:00,
2013-04-16 13:26:00,54.5,22.0,29.06,NNW,338,6.9,6.9,28,0.00,CLR,,0.00,WeatherDisplay:10.37,2013-04-16 17:26:00,
2013-04-16 13:27:00,54.5,22.0,29.06,North,0,8.1,8.1,28,0.00,CLR,,0.00,WeatherDisplay:10.37,2013-04-16 17:27:00,
2013-04-16 13:28:00,54.5,22.0,29.06,WNW,292,6.0,6.0,28,0.00,CLR,,0.00,WeatherDisplay:10.37,2013-04-16 17:28:00,
2013-04-16 13:29:00,55.0,22.5,29.06,WNW,292,6.4,6.4,28,0.00,CLR,,0.00,WeatherDisplay:10.37,2013-04-16 17:29:00,
2013-04-16 13:31:00,55.0,21.6,29.06,WNW,292,5.8,5.8,27,0.00,CLR,,0.00,WeatherDisplay:10.37,2013-04-16 17:31:00,
2013-04-16 13:32:00,54.9,21.5,29.06,NNW,338,6.4,6.4,27,0.00,CLR,,0.00,WeatherDisplay:10.37,2013-04-16 17:32:00,
2013-04-16 13:34:00,54.9,21.5,29.06,NNW,338,7.8,7.8,27,0.00,CLR,,0.00,WeatherDisplay:10.37,2013-04-16 17:34:00,
2013-04-16 13:36:00,55.2,21.8,29.06,NNE,22,12.3,12.3,27,0.00,CLR,,0.00,WeatherDisplay:10.37,2013-04-16 17:36:00,
2013-04-16 13:37:00,56.3,22.7,29.06,NNE,22,15.0,15.0,27,0.00,CLR,,0.00,WeatherDisplay:10.37,2013-04-16 17:37:00,
2013-04-16 13:38:00,56.3,22.7,29.06,NNE,22,9.2,9.2,27,0.00,CLR,,0.00,WeatherDisplay:10.37,2013-04-16 17:38:00,
2013-04-16 13:39:00,56.7,23.0,29.06,NNW,338,10.4,10.4,27,0.00,CLR,,0.00,WeatherDisplay:10.37,2013-04-16 17:39:00,
2013-04-16 13:40:00,56.7,23.0,29.06,North,0,11.5,11.5,27,0.00,CLR,,0.00,WeatherDisplay:10.37,2013-04-16 17:40:00,
2013-04-16 13:41:00,56.5,22.0,29.06,NNW,338,17.3,17.3,26,0.00,CLR,,0.00,WeatherDisplay:10.37,2013-04-16 17:41:00,
2013-04-16 13:43:00,55.9,21.5,29.06,NNE,22,10.5,10.5,26,0.00,CLR,,0.00,WeatherDisplay:10.37,2013-04-16 17:43:00,
2013-04-16 13:45:00,56.5,22.0,29.06,NNW,338,10.4,10.4,26,0.00,CLR,,0.00,WeatherDisplay:10.37,2013-04-16 17:45:00,
2013-04-16 13:46:00,57.2,22.6,29.06,NNE,22,13.8,13.8,26,0.00,CLR,,0.00,WeatherDisplay:10.37,2013-04-16 17:46:00,
2013-04-16 13:48:00,57.9,23.2,29.06,NNE,22,12.7,12.7,26,0.00,CLR,,0.00,WeatherDisplay:10.37,2013-04-16 17:48:00,
2013-04-16 13:50:00,58.1,23.3,29.06,North,0,8.1,8.1,26,0.00,CLR,,0.00,WeatherDisplay:10.37,2013-04-16 17:50:00,
2013-04-16 13:51:00,58.1,22.4,29.06,WNW,292,7.4,7.4,25,0.00,CLR,,0.00,WeatherDisplay:10.37,2013-04-16 17:51:00,
2013-04-16 13:53:00,57.6,22.0,29.06,North,0,13.8,13.8,25,0.00,CLR,,0.00,WeatherDisplay:10.37,2013-04-16 17:53:00,
2013-04-16 13:55:00,57.7,22.1,29.06,NNW,338,5.8,5.8,25,0.00,CLR,,0.00,WeatherDisplay:10.37,2013-04-16 17:55:00,
2013-04-16 13:56:00,58.3,22.6,29.06,NNE,22,8.1,9.0,25,0.00,CLR,,0.00,WeatherDisplay:10.37,2013-04-16 17:56:00,
2013-04-16 13:59:00,58.8,23.0,29.06,NNE,22,13.0,13.0,25,0.00,CLR,,0.00,WeatherDisplay:10.37,2013-04-16 17:59:00,
2013-04-16 14:00:00,58.8,22.1,29.06,NNE,22,16.1,16.1,24,0.00,CLR,,0.00,WeatherDisplay:10.37,2013-04-16 18:00:00,
2013-04-16 14:02:00,59.4,22.5,29.06,NNE,22,13.8,13.8,24,0.00,CLR,,0.00,WeatherDisplay:10.37,2013-04-16 18:02:00,
2013-04-16 14:04:00,58.8,22.1,29.06,NNW,338,10.4,10.4,24,0.00,CLR,,0.00,WeatherDisplay:10.37,2013-04-16 18:04:00,
2013-04-16 14:05:00,58.1,21.4,29.06,North,0,10.4,10.4,24,0.00,CLR,,0.00,WeatherDisplay:10.37,2013-04-16 18:05:00,
2013-04-16 14:06:00,58.1,19.4,29.06,NNW,338,10.4,10.4,22,0.00,CLR,,0.00,WeatherDisplay:10.37,2013-04-16 18:06:00,
2013-04-16 14:07:00,58.1,19.4,29.06,NNW,338,12.7,12.7,22,0.00,CLR,,0.00,WeatherDisplay:10.37,2013-04-16 18:07:00,
2013-04-16 14:09:00,58.8,20.0,29.06,NNE,22,10.4,10.4,22,0.00,CLR,,0.00,WeatherDisplay:10.37,2013-04-16 18:09:00,
2013-04-16 14:10:00,59.2,20.3,29.06,NNW,338,13.8,13.8,22,0.00,CLR,,0.00,WeatherDisplay:10.37,2013-04-16 18:10:00,
2013-04-16 14:11:00,59.2,20.3,29.06,North,0,13.8,13.8,22,0.00,CLR,,0.00,WeatherDisplay:10.37,2013-04-16 18:11:00,
2013-04-16 14:12:00,59.0,20.2,29.06,NNE,22,13.8,13.8,22,0.00,CLR,,0.00,WeatherDisplay:10.37,2013-04-16 18:12:00,
2013-04-16 14:14:00,59.2,20.3,29.06,NW,315,15.0,15.0,22,0.00,CLR,,0.00,WeatherDisplay:10.37,2013-04-16 18:14:00,
2013-04-16 14:15:00,58.6,19.9,29.06,North,0,16.1,16.1,22,0.00,CLR,,0.00,WeatherDisplay:10.37,2013-04-16 18:15:00,
2013-04-16 14:16:00,58.3,19.6,29.06,NNE,22,10.0,10.0,22,0.00,CLR,,0.00,WeatherDisplay:10.37,2013-04-16 18:16:00,
2013-04-16 14:17:00,58.8,20.0,29.06,NNW,338,17.5,17.5,22,0.00,CLR,,0.00,WeatherDisplay:10.37,2013-04-16 18:17:00,
2013-04-16 14:19:00,59.2,20.3,29.09,NNW,338,10.4,10.4,22,0.00,CLR,,0.00,WeatherDisplay:10.37,2013-04-16 18:19:00,
2013-04-16 14:20:00,58.5,19.7,29.09,NNW,338,9.2,9.2,22,0.00,CLR,,0.00,WeatherDisplay:10.37,2013-04-16 18:20:00,
2013-04-16 14:22:00,59.2,16.9,29.09,NNW,338,18.4,18.4,19,0.00,CLR,,0.00,WeatherDisplay:10.37,2013-04-16 18:22:00,
2013-04-16 14:23:00,59.2,16.9,29.09,NNW,338,10.4,14.3,19,0.00,CLR,,0.00,WeatherDisplay:10.37,2013-04-16 18:23:00,
2013-04-16 14:24:00,59.2,16.9,29.09,NNW,338,11.5,11.5,19,0.00,CLR,,0.00,WeatherDisplay:10.37,2013-04-16 18:24:00,
2013-04-16 14:25:00,59.4,17.0,29.09,NNE,22,12.7,12.7,19,0.00,CLR,,0.00,WeatherDisplay:10.37,2013-04-16 18:25:00,
2013-04-16 14:27:00,60.1,21.1,29.09,NNW,338,15.0,15.0,22,0.00,CLR,,0.00,WeatherDisplay:10.37,2013-04-16 18:27:00,
2013-04-16 14:28:00,60.6,18.1,29.09,North,0,15.0,15.0,19,0.00,CLR,,0.00,WeatherDisplay:10.37,2013-04-16 18:28:00,
2013-04-16 14:29:00,60.8,18.2,29.09,NNW,338,10.7,10.7,19,0.00,CLR,,0.00,WeatherDisplay:10.37,2013-04-16 18:29:00,
2013-04-16 14:30:00,60.7,18.2,29.09,NNW,347,7.0,15.0,19,0.00,CLR,,0.00,WeatherDisplay:10.37,2013-04-16 18:30:00,
2013-04-16 14:32:00,60.3,17.8,29.09,NNE,22,13.2,13.2,19,0.00,CLR,,0.00,WeatherDisplay:10.37,2013-04-16 18:32:00,
2013-04-16 14:33:00,62.2,21.8,29.09,NNE,22,17.3,17.3,21,0.00,CLR,,0.00,WeatherDisplay:10.37,2013-04-16 18:33:00,
2013-04-16 14:35:00,62.3,20.7,29.09,North,349,8.0,17.0,20,0.00,CLR,,0.00,WeatherDisplay:10.37,2013-04-16 18:35:00,
2013-04-16 14:37:00,61.7,19.0,29.09,West,270,4.6,4.6,19,0.00,CLR,,0.00,WeatherDisplay:10.37,2013-04-16 18:37:00,
2013-04-16 14:38:00,61.7,19.0,29.09,North,0,10.0,10.0,19,0.00,CLR,,0.00,WeatherDisplay:10.37,2013-04-16 18:38:00,
2013-04-16 14:40:00,62.8,18.6,29.09,NNW,338,10.4,10.4,18,0.00,CLR,,0.00,WeatherDisplay:10.37,2013-04-16 18:40:00,
2013-04-16 14:43:00,61.7,19.0,29.09,NW,315,11.5,11.5,19,0.00,CLR,,0.00,WeatherDisplay:10.37,2013-04-16 18:43:00,
2013-04-16 14:45:00,61.2,18.5,29.09,NNW,338,10.4,10.4,19,0.00,CLR,,0.00,WeatherDisplay:10.37,2013-04-16 18:45:00,
2013-04-16 14:46:00,61.2,18.5,29.09,North,0,6.9,6.9,19,0.00,CLR,,0.00,WeatherDisplay:10.37,2013-04-16 18:46:00,
2013-04-16 14:48:00,64.2,19.8,29.09,NNW,338,15.0,15.0,18,0.00,CLR,,0.00,WeatherDisplay:10.37,2013-04-16 18:48:00,
2013-04-16 14:49:00,63.9,19.5,29.09,NNW,338,15.0,15.0,18,0.00,CLR,,0.00,WeatherDisplay:10.37,2013-04-16 18:49:00,
2013-04-16 14:50:00,63.3,19.0,29.09,NNE,22,10.4,10.4,18,0.00,CLR,,0.00,WeatherDisplay:10.37,2013-04-16 18:50:00,
2013-04-16 14:51:00,62.4,19.6,29.09,NNW,338,8.1,8.1,19,0.00,CLR,,0.00,WeatherDisplay:10.37,2013-04-16 18:51:00,
2013-04-16 14:53:00,62.6,18.4,29.09,ESE,112,6.4,6.4,18,0.00,CLR,,0.00,WeatherDisplay:10.37,2013-04-16 18:53:00,
2013-04-16 14:54:00,63.1,18.9,29.09,NW,315,6.9,6.9,18,0.00,CLR,,0.00,WeatherDisplay:10.37,2013-04-16 18:54:00,
2013-04-16 14:55:00,63.0,18.7,29.09,WSW,248,6.9,6.9,18,0.00,CLR,,0.00,WeatherDisplay:10.37,2013-04-16 18:55:00,
2013-04-16 14:56:00,63.1,18.9,29.09,NNW,338,4.6,4.6,18,0.00,CLR,,0.00,WeatherDisplay:10.37,2013-04-16 18:56:00,
2013-04-16 14:58:00,63.9,19.5,29.09,NNE,22,9.8,9.8,18,0.00,CLR,,0.00,WeatherDisplay:10.37,2013-04-16 18:58:00,
2013-04-16 14:59:00,63.1,18.9,29.09,NNW,338,9.2,9.2,18,0.00,CLR,,0.00,WeatherDisplay:10.37,2013-04-16 18:59:00,
2013-04-16 15:00:00,63.9,19.5,29.09,North,0,11.5,11.5,18,0.00,CLR,,0.00,WeatherDisplay:10.37,2013-04-16 19:00:00,
2013-04-16 15:01:00,64.6,20.1,29.09,NNE,22,11.5,11.5,18,0.00,CLR,,0.00,WeatherDisplay:10.37,2013-04-16 19:01:00,
2013-04-16 15:03:00,64.9,20.4,29.09,WSW,248,8.1,8.1,18,0.00,CLR,,0.00,WeatherDisplay:10.37,2013-04-16 19:03:00,
2013-04-16 15:04:00,65.5,20.8,29.09,NNE,22,6.7,6.7,18,0.00,CLR,,0.00,WeatherDisplay:10.37,2013-04-16 19:04:00,
2013-04-16 15:05:00,65.5,20.8,29.09,West,270,6.9,6.9,18,0.00,CLR,,0.00,WeatherDisplay:10.37,2013-04-16 19:05:00,
2013-04-16 15:06:00,64.6,20.1,29.09,NW,315,8.1,8.1,18,0.00,CLR,,0.00,WeatherDisplay:10.37,2013-04-16 19:06:00,
2013-04-16 15:07:00,64.2,19.8,29.09,NNW,338,10.5,10.5,18,0.00,CLR,,0.00,WeatherDisplay:10.37,2013-04-16 19:07:00,
2013-04-16 15:09:00,65.3,20.7,29.09,NNW,338,8.1,8.1,18,0.00,CLR,,0.00,WeatherDisplay:10.37,2013-04-16 19:09:00,
2013-04-16 15:10:00,64.0,19.6,29.09,NW,315,8.1,8.1,18,0.00,CLR,,0.00,WeatherDisplay:10.37,2013-04-16 19:10:00,
2013-04-16 15:12:00,63.5,19.2,29.09,NNW,338,13.0,13.0,18,0.00,CLR,,0.00,WeatherDisplay:10.37,2013-04-16 19:12:00,
2013-04-16 15:14:00,64.6,20.1,29.09,NNW,338,15.0,15.0,18,0.00,CLR,,0.00,WeatherDisplay:10.37,2013-04-16 19:14:00,
2013-04-16 15:15:00,64.2,19.8,29.09,NNE,22,12.7,12.7,18,0.00,CLR,,0.00,WeatherDisplay:10.37,2013-04-16 19:15:00,
2013-04-16 15:17:00,66.0,21.2,29.09,NNE,22,12.8,12.8,18,0.00,CLR,,0.00,WeatherDisplay:10.37,2013-04-16 19:17:00,
2013-04-16 15:19:00,67.3,20.9,29.09,NNE,22,10.4,10.4,17,0.00,CLR,,0.00,WeatherDisplay:10.37,2013-04-16 19:19:00,
2013-04-16 15:20:00,68.5,22.0,29.09,NNE,22,13.8,13.8,17,0.00,CLR,,0.00,WeatherDisplay:10.37,2013-04-16 19:20:00,
2013-04-16 15:22:00,67.8,21.4,29.09,NW,315,15.0,15.0,17,0.00,CLR,,0.00,WeatherDisplay:10.37,2013-04-16 19:22:00,
2013-04-16 15:24:00,66.6,20.3,29.09,NNE,22,5.4,5.4,17,0.00,CLR,,0.00,WeatherDisplay:10.37,2013-04-16 19:24:00,
2013-04-16 15:26:00,66.6,20.3,29.09,NNW,338,10.4,10.4,17,0.00,CLR,,0.00,WeatherDisplay:10.37,2013-04-16 19:26:00,
2013-04-16 15:27:00,65.7,21.0,29.09,North,0,10.5,10.5,18,0.00,CLR,,0.00,WeatherDisplay:10.37,2013-04-16 19:27:00,
2013-04-16 15:28:00,67.3,20.9,29.09,North,0,10.4,10.5,17,0.00,CLR,,0.00,WeatherDisplay:10.37,2013-04-16 19:28:00,
2013-04-16 15:29:00,67.3,20.9,29.09,NNW,338,10.4,10.4,17,0.00,CLR,,0.00,WeatherDisplay:10.37,2013-04-16 19:29:00,
2013-04-16 15:30:00,67.3,20.9,29.09,NNW,338,10.4,10.4,17,0.00,CLR,,0.00,WeatherDisplay:10.37,2013-04-16 19:30:00,
2013-04-16 15:31:00,66.0,21.2,29.09,WSW,248,8.1,8.1,18,0.00,CLR,,0.00,WeatherDisplay:10.37,2013-04-16 19:31:00,
2013-04-16 15:32:00,66.6,20.3,29.09,North,0,9.2,9.2,17,0.00,CLR,,0.00,WeatherDisplay:10.37,2013-04-16 19:32:00,
2013-04-16 15:33:00,66.9,20.6,29.09,North,0,12.3,12.3,17,0.00,CLR,,0.00,WeatherDisplay:10.37,2013-04-16 19:33:00,
2013-04-16 15:34:00,67.1,20.8,29.09,NNE,22,12.7,12.7,17,0.00,CLR,,0.00,WeatherDisplay:10.37,2013-04-16 19:34:00,
2013-04-16 15:35:00,67.2,20.8,29.09,North,359,10.0,13.0,17,0.00,CLR,,0.00,WeatherDisplay:10.37,2013-04-16 19:35:00,
2013-04-16 15:37:00,67.1,20.8,29.09,NW,315,15.0,15.0,17,0.00,CLR,,0.00,WeatherDisplay:10.37,2013-04-16 19:37:00,
2013-04-16 15:38:00,65.8,21.1,29.09,NNE,22,11.5,11.5,18,0.00,CLR,,0.00,WeatherDisplay:10.37,2013-04-16 19:38:00,
2013-04-16 15:39:00,65.5,20.8,29.09,WNW,292,11.5,11.5,18,0.00,CLR,,0.00,WeatherDisplay:10.37,2013-04-16 19:39:00,
2013-04-16 15:40:00,65.5,20.8,29.09,NNW,342,8.0,15.0,18,0.00,CLR,,0.00,WeatherDisplay:10.37,2013-04-16 19:40:00,
2013-04-16 15:42:00,64.9,20.4,29.09,WNW,292,12.1,12.1,18,0.00,CLR,,0.00,WeatherDisplay:10.37,2013-04-16 19:42:00,
2013-04-16 15:43:00,65.1,20.5,29.09,NNE,22,13.8,13.8,18,0.00,CLR,,0.00,WeatherDisplay:10.37,2013-04-16 19:43:00,
2013-04-16 15:44:00,65.1,16.3,29.09,NNW,338,11.5,11.5,15,0.00,CLR,,0.00,WeatherDisplay:10.37,2013-04-16 19:44:00,
2013-04-16 15:45:00,65.1,16.3,29.09,NNE,22,11.5,11.5,15,0.00,CLR,,0.00,WeatherDisplay:10.37,2013-04-16 19:45:00,
2013-04-16 15:47:00,64.6,20.1,29.09,NNW,338,9.2,9.2,18,0.00,CLR,,0.00,WeatherDisplay:10.37,2013-04-16 19:47:00,
2013-04-16 15:48:00,62.8,15.9,29.09,WNW,292,8.1,8.1,16,0.00,CLR,,0.00,WeatherDisplay:10.37,2013-04-16 19:48:00,
2013-04-16 15:49:00,63.0,18.7,29.12,SSW,202,8.1,8.1,18,0.00,CLR,,0.00,WeatherDisplay:10.37,2013-04-16 19:49:00,
2013-04-16 15:50:00,63.0,18.7,29.12,NNE,22,2.3,2.3,18,0.00,CLR,,0.00,WeatherDisplay:10.37,2013-04-16 19:50:00,
2013-04-16 15:53:00,66.2,20.0,29.12,WNW,292,5.9,5.9,17,0.00,CLR,,0.00,WeatherDisplay:10.37,2013-04-16 19:53:00,
2013-04-16 15:54:00,65.3,20.7,29.12,WNW,292,8.1,8.1,18,0.00,CLR,,0.00,WeatherDisplay:10.37,2013-04-16 19:54:00,
2013-04-16 15:55:00,65.5,20.8,29.12,North,0,9.4,9.4,18,0.00,CLR,,0.00,WeatherDisplay:10.37,2013-04-16 19:55:00,
2013-04-16 15:58:00,63.3,16.3,29.12,NW,315,6.9,6.9,16,0.00,CLR,,0.00,WeatherDisplay:10.37,2013-04-16 19:58:00,
2013-04-16 15:59:00,63.1,16.2,29.12,SW,225,5.8,5.8,16,0.00,CLR,,0.00,WeatherDisplay:10.37,2013-04-16 19:59:00,
2013-04-16 16:00:00,64.4,15.7,29.12,NNW,338,5.8,5.8,15,0.00,CLR,,0.00,WeatherDisplay:10.37,2013-04-16 20:00:00,
2013-04-16 16:03:00,64.8,16.0,29.12,NNW,338,12.8,12.8,15,0.00,CLR,,0.00,WeatherDisplay:10.37,2013-04-16 20:03:00,
2013-04-16 16:04:00,63.7,16.6,29.12,NW,315,12.7,12.7,16,0.00,CLR,,0.00,WeatherDisplay:10.37,2013-04-16 20:04:00,
2013-04-16 16:05:00,62.6,15.7,29.12,North,0,12.7,12.7,16,0.00,CLR,,0.00,WeatherDisplay:10.37,2013-04-16 20:05:00,
2013-04-16 16:08:00,63.9,16.7,29.12,North,0,17.3,17.3,16,0.00,CLR,,0.00,WeatherDisplay:10.37,2013-04-16 20:08:00,
2013-04-16 16:09:00,63.9,16.7,29.12,NNE,22,10.4,10.4,16,0.00,CLR,,0.00,WeatherDisplay:10.37,2013-04-16 20:09:00,
2013-04-16 16:10:00,63.9,16.7,29.12,North,0,11.5,11.5,16,0.00,CLR,,0.00,WeatherDisplay:10.37,2013-04-16 20:10:00,
2013-04-16 16:11:00,63.0,16.0,29.12,NNW,338,11.5,11.5,16,0.00,CLR,,0.00,WeatherDisplay:10.37,2013-04-16 20:11:00,
2013-04-16 16:13:00,61.9,15.1,29.12,NNE,22,12.1,12.1,16,0.00,CLR,,0.00,WeatherDisplay:10.37,2013-04-16 20:13:00,
2013-04-16 16:14:00,61.9,15.1,29.12,NNE,22,12.7,12.7,16,0.00,CLR,,0.00,WeatherDisplay:10.37,2013-04-16 20:14:00,
2013-04-16 16:15:00,63.0,18.7,29.12,NNW,338,9.2,9.2,18,0.00,CLR,,0.00,WeatherDisplay:10.37,2013-04-16 20:15:00,
2013-04-16 16:16:00,63.0,18.7,29.12,NNW,338,4.6,4.6,18,0.00,CLR,,0.00,WeatherDisplay:10.37,2013-04-16 20:16:00,
2013-04-16 16:18:00,62.4,19.6,29.12,SSW,202,8.1,8.1,19,0.00,CLR,,0.00,WeatherDisplay:10.37,2013-04-16 20:18:00,
2013-04-16 16:19:00,62.8,15.9,29.12,SSW,202,4.6,4.6,16,0.00,CLR,,0.00,WeatherDisplay:10.37,2013-04-16 20:19:00,
2013-04-16 16:20:00,62.1,15.3,29.12,NNW,338,4.6,4.6,16,0.00,CLR,,0.00,WeatherDisplay:10.37,2013-04-16 20:20:00,
2013-04-16 16:21:00,62.1,15.3,29.12,NNW,338,5.9,5.9,16,0.00,CLR,,0.00,WeatherDisplay:10.37,2013-04-16 20:21:00,
2013-04-16 16:23:00,61.0,14.4,29.12,NW,315,10.2,10.2,16,0.00,CLR,,0.00,WeatherDisplay:10.37,2013-04-16 20:23:00,
2013-04-16 16:24:00,60.8,14.3,29.12,NNW,338,10.4,10.4,16,0.00,CLR,,0.00,WeatherDisplay:10.37,2013-04-16 20:24:00,
2013-04-16 16:25:00,61.3,14.7,29.12,NNE,22,13.8,13.8,16,0.00,CLR,,0.00,WeatherDisplay:10.37,2013-04-16 20:25:00,
2013-04-16 16:26:00,61.3,14.7,29.12,NNE,22,13.8,13.8,16,0.00,CLR,,0.00,WeatherDisplay:10.37,2013-04-16 20:26:00,
2013-04-16 16:29:00,62.2,19.4,29.12,NNE,22,12.7,12.7,19,0.00,CLR,,0.00,WeatherDisplay:10.37,2013-04-16 20:29:00,
2013-04-16 16:31:00,62.1,15.3,29.12,NNW,338,12.7,12.7,16,0.00,CLR,,0.00,WeatherDisplay:10.37,2013-04-16 20:31:00,
2013-04-16 16:32:00,61.9,15.1,29.12,NNW,338,8.1,8.1,16,0.00,CLR,,0.00,WeatherDisplay:10.37,2013-04-16 20:32:00,
2013-04-16 16:34:00,61.5,14.8,29.12,NNW,338,6.9,6.9,16,0.00,CLR,,0.00,WeatherDisplay:10.37,2013-04-16 20:34:00,
2013-04-16 16:35:00,61.5,14.8,29.12,North,353,6.0,13.0,16,0.00,CLR,,0.00,WeatherDisplay:10.37,2013-04-16 20:35:00,
2013-04-16 16:37:00,62.1,15.3,29.12,North,0,7.4,7.4,16,0.00,CLR,,0.00,WeatherDisplay:10.37,2013-04-16 20:37:00,
2013-04-16 16:38:00,61.9,19.1,29.12,NNW,338,8.1,8.1,19,0.00,CLR,,0.00,WeatherDisplay:10.37,2013-04-16 20:38:00,
2013-04-16 16:39:00,62.2,19.4,29.12,North,0,6.9,6.9,19,0.00,CLR,,0.00,WeatherDisplay:10.37,2013-04-16 20:39:00,
2013-04-16 16:40:00,62.2,19.4,29.12,NNW,338,6.9,6.9,19,0.00,CLR,,0.00,WeatherDisplay:10.37,2013-04-16 20:40:00,
2013-04-16 16:42:00,61.7,19.0,29.12,NW,315,10.4,10.4,19,0.00,CLR,,0.00,WeatherDisplay:10.37,2013-04-16 20:42:00,
2013-04-16 16:43:00,61.0,18.4,29.12,NNW,338,7.8,7.8,19,0.00,CLR,,0.00,WeatherDisplay:10.37,2013-04-16 20:43:00,
2013-04-16 16:44:00,61.0,14.4,29.12,NNW,338,9.2,9.2,16,0.00,CLR,,0.00,WeatherDisplay:10.37,2013-04-16 20:44:00,
2013-04-16 16:45:00,61.0,14.4,29.12,NNW,338,8.1,8.1,16,0.00,CLR,,0.00,WeatherDisplay:10.37,2013-04-16 20:45:00,
2013-04-16 16:47:00,61.7,15.0,29.12,North,0,15.0,15.0,16,0.00,CLR,,0.00,WeatherDisplay:10.37,2013-04-16 20:47:00,
2013-04-16 16:48:00,61.9,15.1,29.12,NNW,338,11.5,11.5,16,0.00,CLR,,0.00,WeatherDisplay:10.37,2013-04-16 20:48:00,
2013-04-16 16:50:00,61.8,15.1,29.12,NNW,343,7.0,15.0,16,0.00,CLR,,0.00,WeatherDisplay:10.37,2013-04-16 20:50:00,
2013-04-16 16:52:00,61.9,15.1,29.12,NNE,22,10.9,10.9,16,0.00,CLR,,0.00,WeatherDisplay:10.37,2013-04-16 20:52:00,
2013-04-16 16:54:00,61.9,15.1,29.12,WSW,248,8.1,8.1,16,0.00,CLR,,0.00,WeatherDisplay:10.37,2013-04-16 20:54:00,
2013-04-16 16:55:00,61.9,15.1,29.12,NNW,338,8.1,8.1,16,0.00,CLR,,0.00,WeatherDisplay:10.37,2013-04-16 20:55:00,
2013-04-16 16:56:00,61.5,14.8,29.12,NW,315,9.2,9.2,16,0.00,CLR,,0.00,WeatherDisplay:10.37,2013-04-16 20:56:00,
2013-04-16 16:57:00,62.2,15.4,29.12,NNW,338,9.2,9.2,16,0.00,CLR,,0.00,WeatherDisplay:10.37,2013-04-16 20:57:00,
2013-04-16 16:59:00,63.1,16.2,29.12,NNE,22,11.5,11.5,16,0.00,CLR,,0.00,WeatherDisplay:10.37,2013-04-16 20:59:00,
2013-04-16 17:00:00,63.1,16.2,29.12,NNE,22,11.5,11.5,16,0.00,CLR,,0.00,WeatherDisplay:10.37,2013-04-16 21:00:00,
2013-04-16 17:01:00,63.7,16.6,29.12,NNW,338,12.7,12.7,16,0.00,CLR,,0.00,WeatherDisplay:10.37,2013-04-16 21:01:00,
2013-04-16 17:02:00,65.1,16.3,29.12,NNW,338,13.2,13.2,15,0.00,CLR,,0.00,WeatherDisplay:10.37,2013-04-16 21:02:00,
2013-04-16 17:04:00,64.4,15.7,29.12,WNW,292,13.8,13.8,15,0.00,CLR,,0.00,WeatherDisplay:10.37,2013-04-16 21:04:00,
2013-04-16 17:05:00,64.4,15.7,29.12,NW,315,11.5,11.5,15,0.00,CLR,,0.00,WeatherDisplay:10.37,2013-04-16 21:05:00,
2013-04-16 17:06:00,64.0,16.9,29.12,NW,315,4.6,4.6,16,0.00,CLR,,0.00,WeatherDisplay:10.37,2013-04-16 21:06:00,
2013-04-16 17:07:00,64.0,16.9,29.12,WNW,292,4.6,4.6,16,0.00,CLR,,0.00,WeatherDisplay:10.37,2013-04-16 21:07:00,
2013-04-16 17:10:00,64.4,15.7,29.12,NW,315,4.6,4.6,15,0.00,CLR,,0.00,WeatherDisplay:10.37,2013-04-16 21:10:00,
2013-04-16 17:11:00,63.5,16.4,29.12,NNE,22,10.9,10.9,16,0.00,CLR,,0.00,WeatherDisplay:10.37,2013-04-16 21:11:00,
2013-04-16 17:12:00,63.5,16.4,29.12,NNE,22,12.7,12.7,16,0.00,CLR,,0.00,WeatherDisplay:10.37,2013-04-16 21:12:00,
2013-04-16 17:15:00,62.4,15.6,29.12,NNW,338,12.7,12.7,16,0.00,CLR,,0.00,WeatherDisplay:10.37,2013-04-16 21:15:00,
2013-04-16 17:17:00,60.8,14.3,29.12,NNE,22,10.4,10.4,16,0.00,CLR,,0.00,WeatherDisplay:10.37,2013-04-16 21:17:00,
2013-04-16 17:18:00,60.8,14.3,29.12,North,0,9.8,9.8,16,0.00,CLR,,0.00,WeatherDisplay:10.37,2013-04-16 21:18:00,
2013-04-16 17:20:00,60.6,15.5,29.12,North,0,10.4,10.4,17,0.00,CLR,,0.00,WeatherDisplay:10.37,2013-04-16 21:20:00,
2013-04-16 17:22:00,60.6,15.5,29.12,NNW,338,11.5,11.5,17,0.00,CLR,,0.00,WeatherDisplay:10.37,2013-04-16 21:22:00,
2013-04-16 17:24:00,60.4,15.4,29.12,NNW,338,11.5,11.5,17,0.00,CLR,,0.00,WeatherDisplay:10.37,2013-04-16 21:24:00,
2013-04-16 17:25:00,60.4,15.4,29.12,NNW,338,6.9,6.9,17,0.00,CLR,,0.00,WeatherDisplay:10.37,2013-04-16 21:25:00,
2013-04-16 17:27:00,60.6,15.5,29.12,NNE,22,9.2,9.2,17,0.00,CLR,,0.00,WeatherDisplay:10.37,2013-04-16 21:27:00,
2013-04-16 17:28:00,60.6,15.5,29.12,NNE,22,9.2,9.2,17,0.00,CLR,,0.00,WeatherDisplay:10.37,2013-04-16 21:28:00,
2013-04-16 17:29:00,60.6,15.5,29.12,NNW,338,9.2,9.2,17,0.00,CLR,,0.00,WeatherDisplay:10.37,2013-04-16 21:29:00,
2013-04-16 17:30:00,60.8,14.3,29.12,NNE,22,9.7,9.7,16,0.00,CLR,,0.00,WeatherDisplay:10.37,2013-04-16 21:30:00,
2013-04-16 17:31:00,61.2,14.5,29.12,NW,315,9.2,9.2,16,0.00,CLR,,0.00,WeatherDisplay:10.37,2013-04-16 21:31:00,
2013-04-16 17:32:00,61.0,14.4,29.12,NNW,338,6.9,6.9,16,0.00,CLR,,0.00,WeatherDisplay:10.37,2013-04-16 21:32:00,
2013-04-16 17:33:00,61.0,14.4,29.12,NNW,338,11.5,11.5,16,0.00,CLR,,0.00,WeatherDisplay:10.37,2013-04-16 21:33:00,
2013-04-16 17:34:00,60.8,14.3,29.12,North,0,10.4,10.4,16,0.00,CLR,,0.00,WeatherDisplay:10.37,2013-04-16 21:34:00,
2013-04-16 17:35:00,60.6,15.5,29.12,WNW,292,10.4,10.4,17,0.00,CLR,,0.00,WeatherDisplay:10.37,2013-04-16 21:35:00,
2013-04-16 17:36:00,60.4,15.4,29.12,WNW,292,10.4,10.4,17,0.00,CLR,,0.00,WeatherDisplay:10.37,2013-04-16 21:36:00,
2013-04-16 17:37:00,60.1,15.1,29.12,NW,315,9.2,9.2,17,0.00,CLR,,0.00,WeatherDisplay:10.37,2013-04-16 21:37:00,
2013-04-16 17:38:00,60.1,15.1,29.12,NNW,338,6.9,6.9,17,0.00,CLR,,0.00,WeatherDisplay:10.37,2013-04-16 21:38:00,
2013-04-16 17:39:00,60.4,15.4,29.12,North,0,8.1,8.1,17,0.00,CLR,,0.00,WeatherDisplay:10.37,2013-04-16 21:39:00,
2013-04-16 17:41:00,60.4,15.4,29.12,NNE,22,12.7,12.7,17,0.00,CLR,,0.00,WeatherDisplay:10.37,2013-04-16 21:41:00,
2013-04-16 17:42:00,60.4,15.4,29.12,NNW,338,12.7,12.7,17,0.00,CLR,,0.00,WeatherDisplay:10.37,2013-04-16 21:42:00,
2013-04-16 17:43:00,60.3,15.2,29.12,NNE,22,11.5,11.5,17,0.00,CLR,,0.00,WeatherDisplay:10.37,2013-04-16 21:43:00,
2013-04-16 17:44:00,60.3,15.2,29.12,WNW,292,12.7,12.7,17,0.00,CLR,,0.00,WeatherDisplay:10.37,2013-04-16 21:44:00,
2013-04-16 17:46:00,59.7,14.8,29.12,North,0,13.2,13.2,17,0.00,CLR,,0.00,WeatherDisplay:10.37,2013-04-16 21:46:00,
2013-04-16 17:47:00,60.6,15.5,29.12,NNW,338,13.8,13.8,17,0.00,CLR,,0.00,WeatherDisplay:10.37,2013-04-16 21:47:00,
2013-04-16 17:48:00,60.6,15.5,29.12,NNW,338,13.8,13.8,17,0.00,CLR,,0.00,WeatherDisplay:10.37,2013-04-16 21:48:00,
2013-04-16 17:49:00,61.5,14.8,29.15,NNE,22,14.7,14.7,16,0.00,CLR,,0.00,WeatherDisplay:10.37,2013-04-16 21:49:00,
2013-04-16 17:52:00,62.1,15.3,29.15,NNE,22,8.1,8.1,16,0.00,CLR,,0.00,WeatherDisplay:10.37,2013-04-16 21:52:00,
2013-04-16 17:53:00,63.0,16.0,29.15,North,0,9.2,9.2,16,0.00,CLR,,0.00,WeatherDisplay:10.37,2013-04-16 21:53:00,
2013-04-16 17:54:00,63.0,16.0,29.15,NNW,338,9.2,9.2,16,0.00,CLR,,0.00,WeatherDisplay:10.37,2013-04-16 21:54:00,
2013-04-16 17:57:00,62.4,15.6,29.15,North,0,13.8,13.8,16,0.00,CLR,,0.00,WeatherDisplay:10.37,2013-04-16 21:57:00,
2013-04-16 17:58:00,62.4,15.6,29.15,NNW,338,13.8,13.8,16,0.00,CLR,,0.00,WeatherDisplay:10.37,2013-04-16 21:58:00,
2013-04-16 17:59:00,62.4,15.6,29.15,NNW,338,13.8,13.8,16,0.00,CLR,,0.00,WeatherDisplay:10.37,2013-04-16 21:59:00,
2013-04-16 18:00:00,62.2,15.4,29.15,WNW,292,12.7,12.7,16,0.00,CLR,,0.00,WeatherDisplay:10.37,2013-04-16 22:00:00,
2013-04-16 18:02:00,61.0,14.4,29.15,NNW,338,13.8,13.8,16,0.00,CLR,,0.00,WeatherDisplay:10.37,2013-04-16 22:02:00,
2013-04-16 18:04:00,60.4,15.4,29.12,West,270,11.5,11.5,17,0.00,CLR,,0.00,WeatherDisplay:10.37,2013-04-16 22:04:00,
2013-04-16 18:05:00,60.3,15.2,29.12,WSW,248,9.2,9.2,17,0.00,CLR,,0.00,WeatherDisplay:10.37,2013-04-16 22:05:00,
2013-04-16 18:07:00,61.0,14.4,29.12,NNW,338,4.6,4.6,16,0.00,CLR,,0.00,WeatherDisplay:10.37,2013-04-16 22:07:00,
2013-04-16 18:08:00,61.0,14.4,29.12,WNW,292,6.2,6.2,16,0.00,CLR,,0.00,WeatherDisplay:10.37,2013-04-16 22:08:00,
2013-04-16 18:09:00,60.4,15.4,29.12,North,0,7.4,7.4,17,0.00,CLR,,0.00,WeatherDisplay:10.37,2013-04-16 22:09:00,
2013-04-16 18:10:00,60.4,15.4,29.12,NNW,338,6.9,6.9,17,0.00,CLR,,0.00,WeatherDisplay:10.37,2013-04-16 22:10:00,
2013-04-16 18:12:00,60.6,15.5,29.12,North,0,5.6,5.6,17,0.00,CLR,,0.00,WeatherDisplay:10.37,2013-04-16 22:12:00,
2013-04-16 18:13:00,60.6,15.5,29.12,North,0,7.4,7.4,17,0.00,CLR,,0.00,WeatherDisplay:10.37,2013-04-16 22:13:00,
2013-04-16 18:14:00,60.6,15.5,29.12,North,0,8.1,8.1,17,0.00,CLR,,0.00,WeatherDisplay:10.37,2013-04-16 22:14:00,
2013-04-16 18:15:00,61.2,14.5,29.12,North,0,10.5,10.5,16,0.00,CLR,,0.00,WeatherDisplay:10.37,2013-04-16 22:15:00,
2013-04-16 18:18:00,60.8,14.3,29.12,North,0,5.8,5.8,16,0.00,CLR,,0.00,WeatherDisplay:10.37,2013-04-16 22:18:00,
2013-04-16 18:19:00,60.6,15.5,29.12,NNE,22,5.8,5.8,17,0.00,CLR,,0.00,WeatherDisplay:10.37,2013-04-16 22:19:00,
2013-04-16 18:20:00,60.6,15.5,29.12,North,0,7.4,7.4,17,0.00,CLR,,0.00,WeatherDisplay:10.37,2013-04-16 22:20:00,
2013-04-16 18:23:00,59.5,14.6,29.12,NNW,338,6.9,6.9,17,0.00,CLR,,0.00,WeatherDisplay:10.37,2013-04-16 22:23:00,
2013-04-16 18:24:00,59.5,14.6,29.12,North,0,9.2,9.2,17,0.00,CLR,,0.00,WeatherDisplay:10.37,2013-04-16 22:24:00,
2013-04-16 18:25:00,59.5,14.6,29.12,NNW,338,9.2,9.2,17,0.00,CLR,,0.00,WeatherDisplay:10.37,2013-04-16 22:25:00,
2013-04-16 18:26:00,59.7,14.8,29.12,North,0,8.1,8.1,17,0.00,CLR,,0.00,WeatherDisplay:10.37,2013-04-16 22:26:00,
2013-04-16 18:28:00,59.7,14.8,29.12,WSW,248,3.5,3.5,17,0.00,CLR,,0.00,WeatherDisplay:10.37,2013-04-16 22:28:00,
2013-04-16 18:29:00,59.5,14.6,29.12,WNW,292,4.7,4.7,17,0.00,CLR,,0.00,WeatherDisplay:10.37,2013-04-16 22:29:00,
2013-04-16 18:30:00,59.2,14.3,29.12,North,0,4.6,4.6,17,0.00,CLR,,0.00,WeatherDisplay:10.37,2013-04-16 22:30:00,
2013-04-16 18:31:00,59.2,14.3,29.12,NW,315,4.6,4.6,17,0.00,CLR,,0.00,WeatherDisplay:10.37,2013-04-16 22:31:00,
2013-04-16 18:33:00,59.2,14.3,29.15,NNW,338,8.1,9.0,17,0.00,CLR,,0.00,WeatherDisplay:10.37,2013-04-16 22:33:00,
2013-04-16 18:34:00,59.2,14.3,29.15,NNE,22,8.1,8.1,17,0.00,CLR,,0.00,WeatherDisplay:10.37,2013-04-16 22:34:00,
2013-04-16 18:35:00,59.5,14.6,29.15,NNE,22,8.1,8.1,17,0.00,CLR,,0.00,WeatherDisplay:10.37,2013-04-16 22:35:00,
2013-04-16 18:36:00,59.4,14.5,29.15,North,0,7.8,7.8,17,0.00,CLR,,0.00,WeatherDisplay:10.37,2013-04-16 22:36:00,
2013-04-16 18:38:00,59.0,14.2,29.15,North,0,9.2,9.2,17,0.00,CLR,,0.00,WeatherDisplay:10.37,2013-04-16 22:38:00,
2013-04-16 18:39:00,59.0,14.2,29.15,NNW,338,9.2,9.2,17,0.00,CLR,,0.00,WeatherDisplay:10.37,2013-04-16 22:39:00,
2013-04-16 18:40:00,59.0,14.2,29.15,NNW,338,9.2,9.2,17,0.00,CLR,,0.00,WeatherDisplay:10.37,2013-04-16 22:40:00,
2013-04-16 18:42:00,58.6,13.9,29.15,WNW,292,5.8,5.8,17,0.00,CLR,,0.00,WeatherDisplay:10.37,2013-04-16 22:42:00,
2013-04-16 18:43:00,58.6,13.9,29.15,NNW,338,9.2,9.2,17,0.00,CLR,,0.00,WeatherDisplay:10.37,2013-04-16 22:43:00,
2013-04-16 18:45:00,58.5,13.7,29.15,NNW,338,10.4,10.4,17,0.00,CLR,,0.00,WeatherDisplay:10.37,2013-04-16 22:45:00,
2013-04-16 18:47:00,58.8,14.0,29.15,NNW,338,8.1,8.1,17,0.00,CLR,,0.00,WeatherDisplay:10.37,2013-04-16 22:47:00,
2013-04-16 18:48:00,58.8,14.0,29.15,North,0,5.9,5.9,17,0.00,CLR,,0.00,WeatherDisplay:10.37,2013-04-16 22:48:00,
2013-04-16 18:49:00,58.8,14.0,29.15,WNW,292,5.8,5.8,17,0.00,CLR,,0.00,WeatherDisplay:10.37,2013-04-16 22:49:00,
2013-04-16 18:50:00,58.8,14.0,29.15,WSW,248,5.8,5.8,17,0.00,CLR,,0.00,WeatherDisplay:10.37,2013-04-16 22:50:00,
2013-04-16 18:52:00,57.9,13.3,29.15,NNE,22,4.0,4.0,17,0.00,CLR,,0.00,WeatherDisplay:10.37,2013-04-16 22:52:00,
2013-04-16 18:53:00,58.1,13.4,29.15,NNW,338,4.6,4.6,17,0.00,CLR,,0.00,WeatherDisplay:10.37,2013-04-16 22:53:00,
2013-04-16 18:54:00,58.1,13.4,29.15,North,0,3.6,3.6,17,0.00,CLR,,0.00,WeatherDisplay:10.37,2013-04-16 22:54:00,
2013-04-16 18:55:00,58.5,13.7,29.15,NNE,22,5.8,5.8,17,0.00,CLR,,0.00,WeatherDisplay:10.37,2013-04-16 22:55:00,
2013-04-16 18:56:00,58.5,13.7,29.15,NNE,22,4.6,4.6,17,0.00,CLR,,0.00,WeatherDisplay:10.37,2013-04-16 22:56:00,
2013-04-16 18:57:00,58.5,13.7,29.15,NNE,22,8.1,8.1,17,0.00,CLR,,0.00,WeatherDisplay:10.37,2013-04-16 22:57:00,
2013-04-16 18:58:00,58.5,13.7,29.15,NNW,338,10.4,10.4,17,0.00,CLR,,0.00,WeatherDisplay:10.37,2013-04-16 22:58:00,
2013-04-16 18:59:00,58.5,13.7,29.15,North,0,10.4,10.4,17,0.00,CLR,,0.00,WeatherDisplay:10.37,2013-04-16 22:59:00,
2013-04-16 19:01:00,58.5,13.7,29.15,NNW,338,6.7,6.7,17,0.00,CLR,,0.00,WeatherDisplay:10.37,2013-04-16 23:01:00,
2013-04-16 19:03:00,58.3,13.6,29.15,North,0,5.8,5.8,17,0.00,CLR,,0.00,WeatherDisplay:10.37,2013-04-16 23:03:00,
2013-04-16 19:04:00,57.7,13.2,29.15,NNW,338,5.8,5.8,17,0.00,CLR,,0.00,WeatherDisplay:10.37,2013-04-16 23:04:00,
2013-04-16 19:06:00,57.7,13.2,29.15,North,0,8.1,8.1,17,0.00,CLR,,0.00,WeatherDisplay:10.37,2013-04-16 23:06:00,
2013-04-16 19:07:00,57.7,13.2,29.15,NNW,338,8.1,8.1,17,0.00,CLR,,0.00,WeatherDisplay:10.37,2013-04-16 23:07:00,
2013-04-16 19:08:00,58.3,13.6,29.15,NW,315,9.2,9.2,17,0.00,CLR,,0.00,WeatherDisplay:10.37,2013-04-16 23:08:00,
2013-04-16 19:09:00,58.3,13.6,29.15,North,0,5.8,5.8,17,0.00,CLR,,0.00,WeatherDisplay:10.37,2013-04-16 23:09:00,
2013-04-16 19:12:00,59.0,14.2,29.15,North,0,6.9,6.9,17,0.00,CLR,,0.00,WeatherDisplay:10.37,2013-04-16 23:12:00,
2013-04-16 19:13:00,59.4,14.5,29.15,NW,315,5.8,5.8,17,0.00,CLR,,0.00,WeatherDisplay:10.37,2013-04-16 23:13:00,
2013-04-16 19:14:00,59.2,14.3,29.15,NW,315,3.5,3.5,17,0.00,CLR,,0.00,WeatherDisplay:10.37,2013-04-16 23:14:00,
2013-04-16 19:17:00,58.8,14.0,29.15,North,0,5.9,5.9,17,0.00,CLR,,0.00,WeatherDisplay:10.37,2013-04-16 23:17:00,
2013-04-16 19:18:00,58.8,14.0,29.15,NNW,338,8.1,8.1,17,0.00,CLR,,0.00,WeatherDisplay:10.37,2013-04-16 23:18:00,
2013-04-16 19:19:00,58.6,13.9,29.15,NNE,22,5.8,5.8,17,0.00,CLR,,0.00,WeatherDisplay:10.37,2013-04-16 23:19:00,
2013-04-16 19:20:00,59.0,14.2,29.15,NNE,22,9.4,9.4,17,0.00,CLR,,0.00,WeatherDisplay:10.37,2013-04-16 23:20:00,
2013-04-16 19:22:00,59.4,14.5,29.15,NNE,22,9.2,9.2,17,0.00,CLR,,0.00,WeatherDisplay:10.37,2013-04-16 23:22:00,
2013-04-16 19:23:00,59.2,14.3,29.15,NNE,22,8.1,8.1,17,0.00,CLR,,0.00,WeatherDisplay:10.37,2013-04-16 23:23:00,
2013-04-16 19:24:00,59.2,14.3,29.15,North,0,9.8,9.8,17,0.00,CLR,,0.00,WeatherDisplay:10.37,2013-04-16 23:24:00,
2013-04-16 19:25:00,59.4,14.5,29.15,NNE,22,10.4,10.4,17,0.00,CLR,,0.00,WeatherDisplay:10.37,2013-04-16 23:25:00,
2013-04-16 19:27:00,59.4,14.5,29.15,NNW,338,8.1,8.1,17,0.00,CLR,,0.00,WeatherDisplay:10.37,2013-04-16 23:27:00,
2013-04-16 19:28:00,59.4,14.5,29.15,North,0,9.2,9.2,17,0.00,CLR,,0.00,WeatherDisplay:10.37,2013-04-16 23:28:00,
2013-04-16 19:29:00,59.2,14.3,29.15,North,0,9.2,9.2,17,0.00,CLR,,0.00,WeatherDisplay:10.37,2013-04-16 23:29:00,
2013-04-16 19:30:00,59.2,14.3,29.15,NNW,338,9.2,9.2,17,0.00,CLR,,0.00,WeatherDisplay:10.37,2013-04-16 23:30:00,
2013-04-16 19:32:00,59.2,14.3,29.15,NNE,22,10.4,10.4,17,0.00,CLR,,0.00,WeatherDisplay:10.37,2013-04-16 23:32:00,
2013-04-16 19:33:00,59.4,14.5,29.15,North,0,9.2,9.2,17,0.00,CLR,,0.00,WeatherDisplay:10.37,2013-04-16 23:33:00,
2013-04-16 19:34:00,59.5,14.6,29.15,NNE,22,8.1,8.1,17,0.00,CLR,,0.00,WeatherDisplay:10.37,2013-04-16 23:34:00,
2013-04-16 19:35:00,59.5,14.6,29.15,NNE,22,10.0,10.0,17,0.00,CLR,,0.00,WeatherDisplay:10.37,2013-04-16 23:35:00,
2013-04-16 19:37:00,59.7,14.8,29.15,North,0,10.4,10.4,17,0.00,CLR,,0.00,WeatherDisplay:10.37,2013-04-16 23:37:00,
2013-04-16 19:38:00,59.9,14.9,29.15,NNE,22,11.5,11.5,17,0.00,CLR,,0.00,WeatherDisplay:10.37,2013-04-16 23:38:00,
2013-04-16 19:39:00,59.9,14.9,29.15,NNW,338,10.4,10.4,17,0.00,CLR,,0.00,WeatherDisplay:10.37,2013-04-16 23:39:00,
2013-04-16 19:40:00,59.4,14.5,29.15,North,0,10.4,10.4,17,0.00,CLR,,0.00,WeatherDisplay:10.37,2013-04-16 23:40:00,
2013-04-16 19:41:00,59.2,14.3,29.15,NNW,338,9.2,9.2,17,0.00,CLR,,0.00,WeatherDisplay:10.37,2013-04-16 23:41:00,
2013-04-16 19:42:00,58.6,13.9,29.15,NW,315,6.9,6.9,17,0.00,CLR,,0.00,WeatherDisplay:10.37,2013-04-16 23:42:00,
2013-04-16 19:44:00,58.5,13.7,29.15,North,0,8.1,8.1,17,0.00,CLR,,0.00,WeatherDisplay:10.37,2013-04-16 23:44:00,
2013-04-16 19:45:00,58.6,13.9,29.15,North,0,8.1,8.1,17,0.00,CLR,,0.00,WeatherDisplay:10.37,2013-04-16 23:45:00,
2013-04-16 19:46:00,58.8,14.0,29.15,NNW,338,8.1,8.1,17,0.00,CLR,,0.00,WeatherDisplay:10.37,2013-04-16 23:46:00,
2013-04-16 19:48:00,59.2,14.3,29.15,NNE,22,6.9,6.9,17,0.00,CLR,,0.00,WeatherDisplay:10.37,2013-04-16 23:48:00,
2013-04-16 19:49:00,59.2,14.3,29.15,NNW,338,6.9,6.9,17,0.00,CLR,,0.00,WeatherDisplay:10.37,2013-04-16 23:49:00,
2013-04-16 19:50:00,59.2,14.3,29.15,North,0,6.9,6.9,17,0.00,CLR,,0.00,WeatherDisplay:10.37,2013-04-16 23:50:00,
2013-04-16 19:51:00,59.2,14.3,29.15,NNE,22,6.2,6.2,17,0.00,CLR,,0.00,WeatherDisplay:10.37,2013-04-16 23:51:00,
2013-04-16 19:53:00,58.1,13.4,29.15,NNE,22,6.9,6.9,17,0.00,CLR,,0.00,WeatherDisplay:10.37,2013-04-16 23:53:00,
2013-04-16 19:54:00,57.9,13.3,29.15,NNW,338,5.8,5.8,17,0.00,CLR,,0.00,WeatherDisplay:10.37,2013-04-16 23:54:00,
2013-04-16 19:55:00,58.0,13.3,29.15,North,2,3.0,9.0,17,0.00,CLR,,0.00,WeatherDisplay:10.37,2013-04-16 23:55:00,
2013-04-16 19:57:00,58.3,13.6,29.15,NNE,22,9.2,9.2,17,0.00,CLR,,0.00,WeatherDisplay:10.37,2013-04-16 23:57:00,
2013-04-16 19:59:00,58.3,13.6,29.15,NNE,22,5.8,5.8,17,0.00,CLR,,0.00,WeatherDisplay:10.37,2013-04-16 23:59:00,
2013-04-16 20:00:00,57.7,13.2,29.15,NNW,338,5.9,5.9,17,0.00,CLR,,0.00,WeatherDisplay:10.37,2013-04-17 00:00:00,
2013-04-16 20:02:00,57.7,13.2,29.15,North,0,8.1,8.1,17,0.00,CLR,,0.00,WeatherDisplay:10.37,2013-04-17 00:02:00,
2013-04-16 20:04:00,57.2,12.7,29.15,North,0,8.1,8.1,17,0.00,CLR,,0.00,WeatherDisplay:10.37,2013-04-17 00:04:00,
2013-04-16 20:05:00,57.2,12.7,29.15,NNE,22,10.0,10.0,17,0.00,CLR,,0.00,WeatherDisplay:10.37,2013-04-17 00:05:00,
2013-04-16 20:07:00,57.2,12.7,29.15,North,0,8.1,8.1,17,0.00,CLR,,0.00,WeatherDisplay:10.37,2013-04-17 00:07:00,
2013-04-16 20:10:00,56.8,12.4,29.15,NNE,22,8.1,8.5,17,0.00,CLR,,0.00,WeatherDisplay:10.37,2013-04-17 00:10:00,
2013-04-16 20:13:00,56.7,12.3,29.15,NNE,22,5.8,6.0,17,0.00,CLR,,0.00,WeatherDisplay:10.37,2013-04-17 00:13:00,
2013-04-16 20:15:00,56.5,12.1,29.15,NNE,22,6.9,6.9,17,0.00,CLR,,0.00,WeatherDisplay:10.37,2013-04-17 00:15:00,
2013-04-16 20:18:00,55.9,11.7,29.15,North,0,5.8,6.0,17,0.00,CLR,,0.00,WeatherDisplay:10.37,2013-04-17 00:18:00,
2013-04-16 20:20:00,55.8,11.5,29.15,North,0,8.1,8.1,17,0.00,CLR,,0.00,WeatherDisplay:10.37,2013-04-17 00:20:00,
2013-04-16 20:21:00,55.8,11.5,29.15,NNE,22,4.6,4.6,17,0.00,CLR,,0.00,WeatherDisplay:10.37,2013-04-17 00:21:00,
2013-04-16 20:25:00,55.8,11.5,29.15,NNE,22,5.8,5.8,17,0.00,CLR,,0.00,WeatherDisplay:10.37,2013-04-17 00:25:00,
2013-04-16 20:26:00,55.8,11.5,29.15,North,0,5.8,5.8,17,0.00,CLR,,0.00,WeatherDisplay:10.37,2013-04-17 00:26:00,
2013-04-16 20:31:00,55.0,12.2,29.15,North,0,4.6,4.6,18,0.00,CLR,,0.00,WeatherDisplay:10.37,2013-04-17 00:31:00,
2013-04-16 20:32:00,55.0,12.2,29.15,North,0,5.8,5.8,18,0.00,CLR,,0.00,WeatherDisplay:10.37,2013-04-17 00:32:00,
2013-04-16 20:36:00,54.5,11.8,29.15,North,0,2.3,0.0,18,0.00,CLR,,0.00,WeatherDisplay:10.37,2013-04-17 00:36:00,
2013-04-16 20:37:00,54.5,11.8,29.15,NNW,338,4.6,4.6,18,0.00,CLR,,0.00,WeatherDisplay:10.37,2013-04-17 00:37:00,
2013-04-16 20:39:00,54.1,11.5,29.15,NNW,338,0.0,0.0,18,0.00,CLR,,0.00,WeatherDisplay:10.37,2013-04-17 00:39:00,
2013-04-16 20:42:00,54.0,11.3,29.15,NNW,338,1.1,1.4,18,0.00,CLR,,0.00,WeatherDisplay:10.37,2013-04-17 00:42:00,
2013-04-16 20:44:00,53.8,11.2,29.15,NNW,338,3.5,3.5,18,0.00,CLR,,0.00,WeatherDisplay:10.37,2013-04-17 00:44:00,
2013-04-16 20:47:00,53.6,11.0,29.15,NNW,338,2.3,2.3,18,0.00,CLR,,0.00,WeatherDisplay:10.37,2013-04-17 00:47:00,
2013-04-16 20:49:00,53.4,10.9,29.15,North,0,0.0,0.0,18,0.00,CLR,,0.00,WeatherDisplay:10.37,2013-04-17 00:49:00,
2013-04-16 20:52:00,53.2,10.8,29.15,NNE,22,0.0,0.0,18,0.00,CLR,,0.00,WeatherDisplay:10.37,2013-04-17 00:52:00,
2013-04-16 20:53:00,53.2,10.8,29.15,NNE,22,0.0,0.0,18,0.00,CLR,,0.00,WeatherDisplay:10.37,2013-04-17 00:53:00,
2013-04-16 20:54:00,53.1,10.6,29.15,NNW,338,0.0,0.0,18,0.00,CLR,,0.00,WeatherDisplay:10.37,2013-04-17 00:54:00,
2013-04-16 20:57:00,53.1,10.6,29.15,NNW,338,0.0,0.0,18,0.00,CLR,,0.00,WeatherDisplay:10.37,2013-04-17 00:57:00,
2013-04-16 20:58:00,52.9,10.5,29.15,NNW,338,1.1,1.1,18,0.00,CLR,,0.00,WeatherDisplay:10.37,2013-04-17 00:58:00,
2013-04-16 20:59:00,52.9,10.5,29.15,North,0,0.0,0.0,18,0.00,CLR,,0.00,WeatherDisplay:10.37,2013-04-17 00:59:00,
2013-04-16 21:02:00,52.5,10.2,29.15,NNE,22,0.0,0.0,18,0.00,CLR,,0.00,WeatherDisplay:10.37,2013-04-17 01:02:00,
2013-04-16 21:03:00,52.5,10.2,29.15,North,0,0.0,0.0,18,0.00,CLR,,0.00,WeatherDisplay:10.37,2013-04-17 01:03:00,
2013-04-16 21:04:00,52.5,10.2,29.15,NNE,22,0.0,0.0,18,0.00,CLR,,0.00,WeatherDisplay:10.37,2013-04-17 01:04:00,
2013-04-16 21:07:00,52.3,10.0,29.15,NNE,22,0.0,0.0,18,0.00,CLR,,0.00,WeatherDisplay:10.37,2013-04-17 01:07:00,
2013-04-16 21:08:00,52.3,10.0,29.15,NNE,22,0.0,0.0,18,0.00,CLR,,0.00,WeatherDisplay:10.37,2013-04-17 01:08:00,
2013-04-16 21:09:00,52.2,9.9,29.15,NNE,22,0.0,0.0,18,0.00,CLR,,0.00,WeatherDisplay:10.37,2013-04-17 01:09:00,
2013-04-16 21:10:00,52.2,9.9,29.15,NNE,22,0.0,0.0,18,0.00,CLR,,0.00,WeatherDisplay:10.37,2013-04-17 01:10:00,
2013-04-16 21:12:00,52.2,9.9,29.15,NNW,338,0.0,0.0,18,0.00,CLR,,0.00,WeatherDisplay:10.37,2013-04-17 01:12:00,
2013-04-16 21:13:00,52.2,9.9,29.15,NNW,338,0.0,0.0,18,0.00,CLR,,0.00,WeatherDisplay:10.37,2013-04-17 01:13:00,
2013-04-16 21:14:00,51.8,9.6,29.15,NNW,338,0.0,0.0,18,0.00,CLR,,0.00,WeatherDisplay:10.37,2013-04-17 01:14:00,
2013-04-16 21:15:00,51.8,9.6,29.15,NNW,338,0.0,0.0,18,0.00,CLR,,0.00,WeatherDisplay:10.37,2013-04-17 01:15:00,
2013-04-16 21:18:00,51.4,10.5,29.15,NNW,338,0.0,0.0,19,0.00,CLR,,0.00,WeatherDisplay:10.37,2013-04-17 01:18:00,
2013-04-16 21:19:00,51.4,10.5,29.18,NNW,338,0.0,0.0,19,0.00,CLR,,0.00,WeatherDisplay:10.37,2013-04-17 01:19:00,
2013-04-16 21:20:00,51.3,10.3,29.18,NNW,338,0.0,0.0,19,0.00,CLR,,0.00,WeatherDisplay:10.37,2013-04-17 01:20:00,
2013-04-16 21:23:00,51.3,10.3,29.18,NNW,338,0.0,0.0,19,0.00,CLR,,0.00,WeatherDisplay:10.37,2013-04-17 01:23:00,
2013-04-16 21:24:00,51.3,10.3,29.18,NNW,338,0.0,0.0,19,0.00,CLR,,0.00,WeatherDisplay:10.37,2013-04-17 01:24:00,
2013-04-16 21:26:00,50.9,10.0,29.18,NNW,338,0.0,0.0,19,0.00,CLR,,0.00,WeatherDisplay:10.37,2013-04-17 01:26:00,
2013-04-16 21:28:00,50.9,12.3,29.18,NNW,338,0.0,0.0,21,0.00,CLR,,0.00,WeatherDisplay:10.37,2013-04-17 01:28:00,
2013-04-16 21:29:00,50.9,12.3,29.18,NW,315,1.1,0.0,21,0.00,CLR,,0.00,WeatherDisplay:10.37,2013-04-17 01:29:00,
2013-04-16 21:30:00,50.9,12.3,29.18,NW,315,1.1,0.0,21,0.00,CLR,,0.00,WeatherDisplay:10.37,2013-04-17 01:30:00,
2013-04-16 21:32:00,50.7,12.1,29.18,North,0,2.3,2.3,21,0.00,CLR,,0.00,WeatherDisplay:10.37,2013-04-17 01:32:00,
2013-04-16 21:33:00,50.5,12.0,29.18,NNE,22,0.0,0.0,21,0.00,CLR,,0.00,WeatherDisplay:10.37,2013-04-17 01:33:00,
2013-04-16 21:34:00,50.5,12.0,29.18,NNE,22,0.9,0.0,21,0.00,CLR,,0.00,WeatherDisplay:10.37,2013-04-17 01:34:00,
2013-04-16 21:35:00,50.5,12.0,29.18,NNE,22,1.1,0.0,21,0.00,CLR,,0.00,WeatherDisplay:10.37,2013-04-17 01:35:00,
2013-04-16 21:37:00,50.2,11.7,29.18,NNE,22,1.4,0.0,21,0.00,CLR,,0.00,WeatherDisplay:10.37,2013-04-17 01:37:00,
2013-04-16 21:39:00,50.2,11.7,29.18,NNE,22,0.0,0.0,21,0.00,CLR,,0.00,WeatherDisplay:10.37,2013-04-17 01:39:00,
2013-04-16 21:40:00,50.2,11.7,29.18,NNE,22,0.0,2.0,21,0.00,CLR,,0.00,WeatherDisplay:10.37,2013-04-17 01:40:00,
2013-04-16 21:42:00,50.2,11.7,29.18,NNE,22,3.5,3.5,21,0.00,CLR,,0.00,WeatherDisplay:10.37,2013-04-17 01:42:00,
2013-04-16 21:44:00,50.2,11.7,29.18,NNE,22,3.5,3.5,21,0.00,CLR,,0.00,WeatherDisplay:10.37,2013-04-17 01:44:00,
2013-04-16 21:45:00,50.2,11.7,29.18,NNE,22,3.5,3.5,21,0.00,CLR,,0.00,WeatherDisplay:10.37,2013-04-17 01:45:00,
2013-04-16 21:47:00,50.0,11.5,29.18,NNE,22,3.5,3.5,21,0.00,CLR,,0.00,WeatherDisplay:10.37,2013-04-17 01:47:00,
2013-04-16 21:50:00,49.6,11.2,29.18,North,0,0.0,0.0,21,0.00,CLR,,0.00,WeatherDisplay:10.37,2013-04-17 01:50:00,
2013-04-16 21:52:00,49.6,11.2,29.18,West,270,0.0,0.0,21,0.00,CLR,,0.00,WeatherDisplay:10.37,2013-04-17 01:52:00,
2013-04-16 21:55:00,49.3,10.9,29.18,West,270,0.0,0.0,21,0.00,CLR,,0.00,WeatherDisplay:10.37,2013-04-17 01:55:00,
2013-04-16 21:58:00,49.3,10.9,29.18,NNE,22,2.4,2.4,21,0.00,CLR,,0.00,WeatherDisplay:10.37,2013-04-17 01:58:00,
2013-04-16 22:00:00,49.1,10.8,29.18,NNE,22,2.3,2.3,21,0.00,CLR,,0.00,WeatherDisplay:10.37,2013-04-17 02:00:00,
2013-04-16 22:01:00,48.9,10.6,29.18,NNE,22,0.0,0.0,21,0.00,CLR,,0.00,WeatherDisplay:10.37,2013-04-17 02:01:00,
2013-04-16 22:03:00,49.1,10.8,29.18,NNE,22,0.0,0.0,21,0.00,CLR,,0.00,WeatherDisplay:10.37,2013-04-17 02:03:00,
2013-04-16 22:05:00,49.1,10.8,29.18,NNE,22,0.0,0.0,21,0.00,CLR,,0.00,WeatherDisplay:10.37,2013-04-17 02:05:00,
2013-04-16 22:06:00,49.1,10.8,29.18,NNE,22,0.0,0.0,21,0.00,CLR,,0.00,WeatherDisplay:10.37,2013-04-17 02:06:00,
2013-04-16 22:09:00,48.7,13.5,29.18,NNE,22,0.0,0.0,24,0.00,CLR,,0.00,WeatherDisplay:10.37,2013-04-17 02:09:00,
2013-04-16 22:10:00,48.7,13.5,29.18,NNE,22,0.0,0.0,24,0.00,CLR,,0.00,WeatherDisplay:10.37,2013-04-17 02:10:00,
2013-04-16 22:11:00,48.7,13.5,29.18,NNE,22,0.0,0.0,24,0.00,CLR,,0.00,WeatherDisplay:10.37,2013-04-17 02:11:00,
2013-04-16 22:14:00,48.2,13.0,29.18,NNE,22,0.0,0.0,24,0.00,CLR,,0.00,WeatherDisplay:10.37,2013-04-17 02:14:00,
2013-04-16 22:15:00,48.2,13.0,29.18,NNE,22,0.0,0.0,24,0.00,CLR,,0.00,WeatherDisplay:10.37,2013-04-17 02:15:00,
2013-04-16 22:17:00,48.2,13.0,29.18,NNE,22,0.0,0.0,24,0.00,CLR,,0.00,WeatherDisplay:10.37,2013-04-17 02:17:00,
2013-04-16 22:19:00,48.0,15.6,29.20,NNE,22,0.0,0.0,27,0.00,CLR,,0.00,WeatherDisplay:10.37,2013-04-17 02:19:00,
2013-04-16 22:20:00,48.0,15.6,29.20,NNE,22,0.0,0.0,27,0.00,CLR,,0.00,WeatherDisplay:10.37,2013-04-17 02:20:00,
2013-04-16 22:21:00,48.0,15.6,29.20,NNE,22,0.0,0.0,27,0.00,CLR,,0.00,WeatherDisplay:10.37,2013-04-17 02:21:00,
2013-04-16 22:22:00,47.8,15.4,29.20,NNE,22,0.0,0.0,27,0.00,CLR,,0.00,WeatherDisplay:10.37,2013-04-17 02:22:00,
2013-04-16 22:24:00,47.7,15.3,29.20,NNE,22,0.0,0.0,27,0.00,CLR,,0.00,WeatherDisplay:10.37,2013-04-17 02:24:00,
2013-04-16 22:26:00,47.7,15.3,29.20,NNE,22,0.0,0.0,27,0.00,CLR,,0.00,WeatherDisplay:10.37,2013-04-17 02:26:00,
2013-04-16 22:27:00,47.5,15.1,29.20,SSE,158,0.0,0.0,27,0.00,CLR,,0.00,WeatherDisplay:10.37,2013-04-17 02:27:00,
2013-04-16 22:30:00,47.5,15.1,29.20,WSW,248,0.0,0.0,27,0.00,CLR,,0.00,WeatherDisplay:10.37,2013-04-17 02:30:00,
2013-04-16 22:31:00,47.5,15.1,29.20,WNW,292,0.0,0.0,27,0.00,CLR,,0.00,WeatherDisplay:10.37,2013-04-17 02:31:00,
2013-04-16 22:32:00,47.5,15.1,29.20,NNW,338,0.0,0.0,27,0.00,CLR,,0.00,WeatherDisplay:10.37,2013-04-17 02:32:00,
2013-04-16 22:33:00,47.5,15.1,29.20,NNW,338,0.0,0.0,27,0.00,CLR,,0.00,WeatherDisplay:10.37,2013-04-17 02:33:00,
2013-04-16 22:35:00,47.5,15.1,29.20,NNE,22,0.0,0.0,27,0.00,CLR,,0.00,WeatherDisplay:10.37,2013-04-17 02:35:00,
2013-04-16 22:36:00,47.5,15.1,29.20,NNE,22,0.0,0.0,27,0.00,CLR,,0.00,WeatherDisplay:10.37,2013-04-17 02:36:00,
2013-04-16 22:37:00,47.5,15.1,29.20,NNE,22,0.0,0.0,27,0.00,CLR,,0.00,WeatherDisplay:10.37,2013-04-17 02:37:00,
2013-04-16 22:38:00,47.3,15.0,29.20,NE,45,0.0,0.0,27,0.00,CLR,,0.00,WeatherDisplay:10.37,2013-04-17 02:38:00,
2013-04-16 22:40:00,47.3,15.0,29.20,NNE,22,0.0,0.0,27,0.00,CLR,,0.00,WeatherDisplay:10.37,2013-04-17 02:40:00,
2013-04-16 22:41:00,47.1,14.8,29.20,NE,45,0.0,0.0,27,0.00,CLR,,0.00,WeatherDisplay:10.37,2013-04-17 02:41:00,
2013-04-16 22:42:00,46.9,14.6,29.20,NE,45,0.0,0.0,27,0.00,CLR,,0.00,WeatherDisplay:10.37,2013-04-17 02:42:00,
2013-04-16 22:43:00,46.9,14.6,29.20,NNE,22,0.0,0.0,27,0.00,CLR,,0.00,WeatherDisplay:10.37,2013-04-17 02:43:00,
2013-04-16 22:45:00,46.8,14.5,29.20,NNE,22,0.0,0.0,27,0.00,CLR,,0.00,WeatherDisplay:10.37,2013-04-17 02:45:00,
2013-04-16 22:46:00,46.6,15.2,29.20,NNE,22,0.0,0.0,28,0.00,CLR,,0.00,WeatherDisplay:10.37,2013-04-17 02:46:00,
2013-04-16 22:48:00,46.6,15.2,29.20,NNE,22,0.0,0.0,28,0.00,CLR,,0.00,WeatherDisplay:10.37,2013-04-17 02:48:00,
2013-04-16 22:50:00,46.4,15.0,29.20,SSE,158,0.0,0.0,28,0.00,CLR,,0.00,WeatherDisplay:10.37,2013-04-17 02:50:00,
2013-04-16 22:52:00,46.0,15.5,29.20,ENE,68,0.0,0.0,29,0.00,CLR,,0.00,WeatherDisplay:10.37,2013-04-17 02:52:00,
2013-04-16 22:53:00,46.0,15.5,29.20,SSW,202,1.1,0.0,29,0.00,CLR,,0.00,WeatherDisplay:10.37,2013-04-17 02:53:00,
2013-04-16 22:54:00,46.0,15.5,29.20,SSW,202,0.0,0.0,29,0.00,CLR,,0.00,WeatherDisplay:10.37,2013-04-17 02:54:00,
2013-04-16 22:55:00,45.9,16.1,29.20,ESE,112,2.0,0.0,30,0.00,CLR,,0.00,WeatherDisplay:10.37,2013-04-17 02:55:00,
2013-04-16 22:57:00,45.9,15.3,29.20,SSE,158,1.1,0.0,29,0.00,CLR,,0.00,WeatherDisplay:10.37,2013-04-17 02:57:00,
2013-04-16 22:58:00,45.9,15.3,29.20,WNW,292,0.0,0.0,29,0.00,CLR,,0.00,WeatherDisplay:10.37,2013-04-17 02:58:00,
2013-04-16 22:59:00,45.9,15.3,29.20,SSE,158,1.1,0.0,29,0.00,CLR,,0.00,WeatherDisplay:10.37,2013-04-17 02:59:00,
2013-04-16 23:00:00,45.9,16.1,29.20,SW,225,1.1,0.0,30,0.00,CLR,,0.00,WeatherDisplay:10.37,2013-04-17 03:00:00,
2013-04-16 23:02:00,46.0,16.3,29.20,SSW,202,0.0,0.0,30,0.00,CLR,,0.00,WeatherDisplay:10.37,2013-04-17 03:02:00,
2013-04-16 23:03:00,45.9,16.1,29.20,SW,225,0.0,0.0,30,0.00,CLR,,0.00,WeatherDisplay:10.37,2013-04-17 03:03:00,
2013-04-16 23:04:00,45.9,16.1,29.20,WNW,292,0.0,0.0,30,0.00,CLR,,0.00,WeatherDisplay:10.37,2013-04-17 03:04:00,
2013-04-16 23:06:00,45.9,16.1,29.20,NW,315,0.0,0.0,30,0.00,CLR,,0.00,WeatherDisplay:10.37,2013-04-17 03:06:00,
2013-04-16 23:07:00,45.7,16.0,29.20,SSW,202,0.0,0.0,30,0.00,CLR,,0.00,WeatherDisplay:10.37,2013-04-17 03:07:00,
2013-04-16 23:08:00,45.7,16.0,29.20,SSE,158,0.0,0.0,30,0.00,CLR,,0.00,WeatherDisplay:10.37,2013-04-17 03:08:00,
2013-04-16 23:09:00,45.7,16.0,29.20,SSW,202,2.4,2.4,30,0.00,CLR,,0.00,WeatherDisplay:10.37,2013-04-17 03:09:00,
2013-04-16 23:12:00,45.7,16.0,29.20,NNE,22,0.0,0.0,30,0.00,CLR,,0.00,WeatherDisplay:10.37,2013-04-17 03:12:00,
2013-04-16 23:13:00,45.7,16.0,29.20,NNW,338,3.5,3.5,30,0.00,CLR,,0.00,WeatherDisplay:10.37,2013-04-17 03:13:00,
2013-04-16 23:14:00,45.5,15.8,29.20,SSE,158,3.5,3.5,30,0.00,CLR,,0.00,WeatherDisplay:10.37,2013-04-17 03:14:00,
2013-04-16 23:17:00,45.5,15.8,29.20,NNW,338,1.1,1.1,30,0.00,CLR,,0.00,WeatherDisplay:10.37,2013-04-17 03:17:00,
2013-04-16 23:18:00,45.5,15.8,29.20,ENE,68,3.5,3.5,30,0.00,CLR,,0.00,WeatherDisplay:10.37,2013-04-17 03:18:00,
2013-04-16 23:19:00,45.5,15.8,29.20,SSW,202,3.5,3.5,30,0.00,CLR,,0.00,WeatherDisplay:10.37,2013-04-17 03:19:00,
2013-04-16 23:20:00,45.5,16.6,29.20,SSE,158,2.3,0.0,31,0.00,CLR,,0.00,WeatherDisplay:10.37,2013-04-17 03:20:00,
2013-04-16 23:22:00,45.3,16.4,29.20,NNE,22,2.4,0.0,31,0.00,CLR,,0.00,WeatherDisplay:10.37,2013-04-17 03:22:00,
2013-04-16 23:23:00,45.3,16.4,29.20,SSE,158,2.4,2.4,31,0.00,CLR,,0.00,WeatherDisplay:10.37,2013-04-17 03:23:00,
2013-04-16 23:24:00,45.3,17.1,29.20,WSW,248,2.3,2.3,32,0.00,CLR,,0.00,WeatherDisplay:10.37,2013-04-17 03:24:00,
2013-04-16 23:26:00,45.1,17.0,29.20,SSE,158,1.1,0.0,32,0.00,CLR,,0.00,WeatherDisplay:10.37,2013-04-17 03:26:00,
2013-04-16 23:27:00,45.1,17.0,29.20,SSE,158,1.1,0.0,32,0.00,CLR,,0.00,WeatherDisplay:10.37,2013-04-17 03:27:00,
2013-04-16 23:28:00,45.1,17.0,29.20,SSE,158,0.0,0.0,32,0.00,CLR,,0.00,WeatherDisplay:10.37,2013-04-17 03:28:00,
2013-04-16 23:29:00,45.1,17.0,29.20,SSE,158,0.0,0.0,32,0.00,CLR,,0.00,WeatherDisplay:10.37,2013-04-17 03:29:00,
2013-04-16 23:31:00,45.0,17.5,29.20,NNE,22,1.1,0.0,33,0.00,CLR,,0.00,WeatherDisplay:10.37,2013-04-17 03:31:00,
2013-04-16 23:32:00,44.8,17.4,29.20,NNE,22,3.5,3.5,33,0.00,CLR,,0.00,WeatherDisplay:10.37,2013-04-17 03:32:00,
2013-04-16 23:33:00,44.8,17.4,29.20,SSW,202,5.4,0.0,33,0.00,CLR,,0.00,WeatherDisplay:10.37,2013-04-17 03:33:00,
2013-04-16 23:34:00,44.8,17.4,29.20,NNE,22,5.8,5.8,33,0.00,CLR,,0.00,WeatherDisplay:10.37,2013-04-17 03:34:00,
2013-04-16 23:36:00,44.8,18.1,29.20,SSE,158,0.0,1.1,34,0.00,CLR,,0.00,WeatherDisplay:10.37,2013-04-17 03:36:00,
2013-04-16 23:37:00,44.8,18.1,29.20,NE,45,2.9,0.0,34,0.00,CLR,,0.00,WeatherDisplay:10.37,2013-04-17 03:37:00,
2013-04-16 23:38:00,44.6,17.9,29.20,ENE,68,3.8,3.8,34,0.00,CLR,,0.00,WeatherDisplay:10.37,2013-04-17 03:38:00,
2013-04-16 23:39:00,44.6,17.9,29.20,SSE,158,3.5,3.5,34,0.00,CLR,,0.00,WeatherDisplay:10.37,2013-04-17 03:39:00,
2013-04-16 23:41:00,44.6,18.6,29.20,ESE,112,2.3,2.3,35,0.00,CLR,,0.00,WeatherDisplay:10.37,2013-04-17 03:41:00,
2013-04-16 23:42:00,44.6,17.9,29.20,NNE,22,4.6,4.6,34,0.00,CLR,,0.00,WeatherDisplay:10.37,2013-04-17 03:42:00,
2013-04-16 23:43:00,44.6,17.9,29.20,WNW,292,0.0,0.0,34,0.00,CLR,,0.00,WeatherDisplay:10.37,2013-04-17 03:43:00,
2013-04-16 23:44:00,44.4,17.8,29.20,SSE,158,2.0,0.0,34,0.00,CLR,,0.00,WeatherDisplay:10.37,2013-04-17 03:44:00,
2013-04-16 23:45:00,44.4,17.8,29.20,ENE,68,2.3,0.0,34,0.00,CLR,,0.00,WeatherDisplay:10.37,2013-04-17 03:45:00,
2013-04-16 23:47:00,44.4,17.8,29.20,WSW,248,0.0,0.0,34,0.00,CLR,,0.00,WeatherDisplay:10.37,2013-04-17 03:47:00,
2013-04-16 23:49:00,44.2,17.6,29.20,NNW,338,1.1,0.0,34,0.00,CLR,,0.00,WeatherDisplay:10.37,2013-04-17 03:49:00,
2013-04-16 23:50:00,44.2,17.6,29.20,SSE,158,4.6,4.6,34,0.00,CLR,,0.00,WeatherDisplay:10.37,2013-04-17 03:50:00,
2013-04-16 23:52:00,44.1,17.4,29.20,NNE,22,3.5,3.5,34,0.00,CLR,,0.00,WeatherDisplay:10.37,2013-04-17 03:52:00,
2013-04-16 23:54:00,44.1,17.4,29.20,North,0,6.9,6.9,34,0.00,CLR,,0.00,WeatherDisplay:10.37,2013-04-17 03:54:00,
2013-04-16 23:55:00,43.9,17.3,29.20,SSW,202,6.9,6.9,34,0.00,CLR,,0.00,WeatherDisplay:10.37,2013-04-17 03:55:00,
2013-04-16 23:57:00,43.9,17.3,29.20,SSW,202,2.3,2.3,34,0.00,CLR,,0.00,WeatherDisplay:10.37,2013-04-17 03:57:00,
2013-04-16 23:58:00,43.9,17.3,29.20,ENE,68,2.3,2.3,34,0.00,CLR,,0.00,WeatherDisplay:10.37,2013-04-17 03:58:00,